Time,TemperatureF,DewpointF,PressureIn,WindDirection,WindDirectionDegrees,WindSpeedMPH,WindSpeedGustMPH,Humidity,HourlyPrecipIn,Conditions,Clouds,dailyrainin,SoftwareType,DateUTC
2013-12-08 00:00:00,23.0,20.5,30.55,East,97,0.0,4.0,90,0.00,,,0.00,Wunderground v.1.15,2013-12-08 05:00:00,
2013-12-08 00:01:00,23.1,20.6,30.56,East,97,0.0,4.0,90,0.00,,,0.00,Wunderground v.1.15,2013-12-08 05:01:00,
2013-12-08 00:02:00,23.1,20.6,30.56,East,97,0.0,4.0,90,0.00,,,0.00,Wunderground v.1.15,2013-12-08 05:02:00,
2013-12-08 00:07:00,23.1,20.6,30.55,ENE,78,0.0,4.0,90,0.00,,,0.00,Wunderground v.1.15,2013-12-08 05:07:00,
2013-12-08 00:08:00,23.1,20.6,30.54,ENE,78,0.0,4.0,90,0.00,,,0.00,Wunderground v.1.15,2013-12-08 05:08:00,
2013-12-08 00:09:00,23.1,20.6,30.54,ENE,76,0.0,4.0,90,0.00,,,0.00,Wunderground v.1.15,2013-12-08 05:09:00,
2013-12-08 00:10:00,23.2,20.7,30.54,ENE,76,0.0,4.0,90,0.00,,,0.00,Wunderground v.1.15,2013-12-08 05:10:00,
2013-12-08 00:12:00,23.2,20.7,30.54,ENE,75,1.0,4.0,90,0.00,,,0.00,Wunderground v.1.15,2013-12-08 05:12:00,
2013-12-08 00:13:00,23.2,20.7,30.53,ENE,75,1.0,4.0,90,0.00,,,0.00,Wunderground v.1.15,2013-12-08 05:13:00,
2013-12-08 00:14:00,23.2,20.7,30.53,East,92,1.0,4.0,90,0.00,,,0.00,Wunderground v.1.15,2013-12-08 05:14:00,
2013-12-08 00:17:00,23.3,20.8,30.52,East,83,1.0,4.0,90,0.00,,,0.00,Wunderground v.1.15,2013-12-08 05:17:00,
2013-12-08 00:21:00,23.3,20.8,30.52,East,85,1.0,4.0,90,0.00,,,0.00,Wunderground v.1.15,2013-12-08 05:21:00,
2013-12-08 00:24:00,23.3,20.8,30.52,East,84,1.0,4.0,90,0.00,,,0.00,Wunderground v.1.15,2013-12-08 05:24:00,
2013-12-08 00:26:00,23.3,20.8,30.52,NE,44,1.0,4.0,90,0.00,,,0.00,Wunderground v.1.15,2013-12-08 05:26:00,
2013-12-08 00:29:00,23.3,20.8,30.53,ENE,61,1.0,4.0,90,0.00,,,0.00,Wunderground v.1.15,2013-12-08 05:29:00,
2013-12-08 00:30:00,23.3,20.8,30.53,NE,46,1.0,4.0,90,0.00,,,0.00,Wunderground v.1.15,2013-12-08 05:30:00,
2013-12-08 00:31:00,23.3,20.8,30.53,NE,46,1.0,4.0,90,0.00,,,0.00,Wunderground v.1.15,2013-12-08 05:31:00,
2013-12-08 00:34:00,23.4,20.9,30.52,NE,54,1.0,4.0,90,0.00,,,0.00,Wunderground v.1.15,2013-12-08 05:34:00,
2013-12-08 00:35:00,23.4,20.9,30.52,ENE,76,1.0,4.0,90,0.00,,,0.00,Wunderground v.1.15,2013-12-08 05:35:00,
2013-12-08 00:36:00,23.4,20.9,30.53,ENE,61,1.0,4.0,90,0.00,,,0.00,Wunderground v.1.15,2013-12-08 05:36:00,
2013-12-08 00:39:00,23.4,20.6,30.53,NE,51,1.0,3.0,89,0.00,,,0.00,Wunderground v.1.15,2013-12-08 05:39:00,
2013-12-08 00:40:00,23.4,20.9,30.53,NE,51,1.0,3.0,90,0.00,,,0.00,Wunderground v.1.15,2013-12-08 05:40:00,
2013-12-08 00:42:00,23.5,20.7,30.53,NE,53,1.0,3.0,89,0.00,,,0.00,Wunderground v.1.15,2013-12-08 05:42:00,
2013-12-08 00:44:00,23.5,20.7,30.54,East,81,1.0,3.0,89,0.00,,,0.00,Wunderground v.1.15,2013-12-08 05:44:00,
2013-12-08 00:46:00,23.5,20.7,30.54,ENE,67,1.0,3.0,89,0.00,,,0.00,Wunderground v.1.15,2013-12-08 05:46:00,
2013-12-08 00:47:00,23.5,20.7,30.53,ENE,68,1.0,3.0,89,0.00,,,0.00,Wunderground v.1.15,2013-12-08 05:47:00,
2013-12-08 00:49:00,23.5,20.7,30.53,NE,49,1.0,3.0,89,0.00,,,0.00,Wunderground v.1.15,2013-12-08 05:49:00,
2013-12-08 00:50:00,23.5,20.7,30.52,East,82,1.0,3.0,89,0.00,,,0.00,Wunderground v.1.15,2013-12-08 05:50:00,
2013-12-08 00:51:00,23.5,20.7,30.52,East,80,1.0,3.0,89,0.00,,,0.00,Wunderground v.1.15,2013-12-08 05:51:00,
2013-12-08 00:52:00,23.5,20.7,30.51,NE,56,1.0,3.0,89,0.00,,,0.00,Wunderground v.1.15,2013-12-08 05:52:00,
2013-12-08 00:58:00,23.6,20.8,30.53,NE,52,2.0,3.0,89,0.00,,,0.00,Wunderground v.1.15,2013-12-08 05:58:00,
2013-12-08 01:00:00,23.6,20.8,30.52,NE,42,1.0,3.0,89,0.00,,,0.00,Wunderground v.1.15,2013-12-08 06:00:00,
2013-12-08 01:01:00,23.6,20.8,30.52,NE,51,1.0,3.0,89,0.00,,,0.00,Wunderground v.1.15,2013-12-08 06:01:00,
2013-12-08 01:03:00,23.6,20.8,30.52,NE,51,1.0,3.0,89,0.00,,,0.00,Wunderground v.1.15,2013-12-08 06:03:00,
2013-12-08 01:04:00,23.6,20.8,30.52,ESE,115,1.0,3.0,89,0.00,,,0.00,Wunderground v.1.15,2013-12-08 06:04:00,
2013-12-08 01:06:00,23.6,20.8,30.52,East,93,1.0,3.0,89,0.00,,,0.00,Wunderground v.1.15,2013-12-08 06:06:00,
2013-12-08 01:07:00,23.6,20.8,30.52,East,93,1.0,3.0,89,0.00,,,0.00,Wunderground v.1.15,2013-12-08 06:07:00,
2013-12-08 01:11:00,23.6,20.8,30.52,East,79,1.0,3.0,89,0.00,,,0.00,Wunderground v.1.15,2013-12-08 06:11:00,
2013-12-08 01:12:00,23.6,20.8,30.51,East,99,1.0,3.0,89,0.00,,,0.00,Wunderground v.1.15,2013-12-08 06:12:00,
2013-12-08 01:13:00,23.6,20.8,30.51,East,96,1.0,3.0,89,0.00,,,0.00,Wunderground v.1.15,2013-12-08 06:13:00,
2013-12-08 01:16:00,23.7,20.9,30.50,ENE,71,1.0,3.0,89,0.00,,,0.00,Wunderground v.1.15,2013-12-08 06:16:00,
2013-12-08 01:18:00,23.7,20.9,30.50,ENE,78,1.0,3.0,89,0.00,,,0.00,Wunderground v.1.15,2013-12-08 06:18:00,
2013-12-08 01:19:00,23.7,20.9,30.50,ENE,78,1.0,3.0,89,0.00,,,0.00,Wunderground v.1.15,2013-12-08 06:19:00,
2013-12-08 01:23:00,23.8,21.0,30.50,East,79,1.0,3.0,89,0.00,,,0.00,Wunderground v.1.15,2013-12-08 06:23:00,
2013-12-08 01:24:00,23.8,21.0,30.50,East,79,1.0,3.0,89,0.00,,,0.00,Wunderground v.1.15,2013-12-08 06:24:00,
2013-12-08 01:25:00,23.8,21.0,30.50,East,79,1.0,3.0,89,0.00,,,0.00,Wunderground v.1.15,2013-12-08 06:25:00,
2013-12-08 01:27:00,23.8,21.0,30.49,ENE,75,1.0,3.0,89,0.00,,,0.00,Wunderground v.1.15,2013-12-08 06:27:00,
2013-12-08 01:29:00,23.8,21.0,30.49,ENE,71,1.0,3.0,89,0.00,,,0.00,Wunderground v.1.15,2013-12-08 06:29:00,
2013-12-08 01:32:00,23.8,21.0,30.49,ENE,74,1.0,3.0,89,0.00,,,0.00,Wunderground v.1.15,2013-12-08 06:32:00,
2013-12-08 01:34:00,23.8,21.0,30.48,NNE,29,1.0,3.0,89,0.00,,,0.00,Wunderground v.1.15,2013-12-08 06:34:00,
2013-12-08 01:38:00,23.8,21.0,30.48,East,91,2.0,2.0,89,0.00,,,0.00,Wunderground v.1.15,2013-12-08 06:38:00,
2013-12-08 01:40:00,23.8,21.0,30.48,East,85,2.0,5.0,89,0.00,,,0.00,Wunderground v.1.15,2013-12-08 06:40:00,
2013-12-08 01:41:00,23.8,21.0,30.48,NE,48,2.0,5.0,89,0.00,,,0.00,Wunderground v.1.15,2013-12-08 06:41:00,
2013-12-08 01:43:00,23.8,21.0,30.47,ENE,63,2.0,5.0,89,0.00,,,0.00,Wunderground v.1.15,2013-12-08 06:43:00,
2013-12-08 01:45:00,23.8,21.0,30.48,East,91,2.0,5.0,89,0.00,,,0.00,Wunderground v.1.15,2013-12-08 06:45:00,
2013-12-08 01:46:00,23.8,21.0,30.48,East,91,1.0,5.0,89,0.00,,,0.00,Wunderground v.1.15,2013-12-08 06:46:00,
2013-12-08 01:48:00,23.8,21.0,30.48,NE,55,1.0,5.0,89,0.00,,,0.00,Wunderground v.1.15,2013-12-08 06:48:00,
2013-12-08 01:51:00,23.8,20.8,30.48,ENE,67,1.0,5.0,88,0.00,,,0.00,Wunderground v.1.15,2013-12-08 06:51:00,
2013-12-08 01:52:00,23.8,20.8,30.48,ESE,108,1.0,5.0,88,0.00,,,0.00,Wunderground v.1.15,2013-12-08 06:52:00,
2013-12-08 01:55:00,23.8,21.0,30.49,East,81,1.0,5.0,89,0.00,,,0.00,Wunderground v.1.15,2013-12-08 06:55:00,
2013-12-08 01:57:00,23.9,21.1,30.49,East,81,1.0,1.0,89,0.00,,,0.00,Wunderground v.1.15,2013-12-08 06:57:00,
2013-12-08 01:58:00,23.9,20.9,30.49,East,98,1.0,3.0,88,0.00,,,0.00,Wunderground v.1.15,2013-12-08 06:58:00,
2013-12-08 02:01:00,23.9,20.9,30.49,NE,39,1.0,5.0,88,0.00,,,0.00,Wunderground v.1.15,2013-12-08 07:01:00,
2013-12-08 02:02:00,23.9,20.9,30.48,ENE,64,1.0,5.0,88,0.00,,,0.00,Wunderground v.1.15,2013-12-08 07:02:00,
2013-12-08 02:04:00,23.9,20.9,30.48,ENE,64,1.0,5.0,88,0.00,,,0.00,Wunderground v.1.15,2013-12-08 07:04:00,
2013-12-08 02:05:00,23.9,20.9,30.49,ENE,62,1.0,5.0,88,0.00,,,0.00,Wunderground v.1.15,2013-12-08 07:05:00,
2013-12-08 02:08:00,23.9,21.1,30.49,NE,37,1.0,5.0,89,0.00,,,0.00,Wunderground v.1.15,2013-12-08 07:08:00,
2013-12-08 02:10:00,24.0,21.2,30.50,ENE,72,1.0,5.0,89,0.00,,,0.00,Wunderground v.1.15,2013-12-08 07:10:00,
2013-12-08 02:11:00,24.0,21.2,30.50,ENE,72,1.0,5.0,89,0.00,,,0.00,Wunderground v.1.15,2013-12-08 07:11:00,
2013-12-08 02:16:00,24.0,21.2,30.49,ENE,59,1.0,5.0,89,0.00,,,0.00,Wunderground v.1.15,2013-12-08 07:16:00,
2013-12-08 02:18:00,24.0,21.0,30.48,ENE,57,1.0,5.0,88,0.00,,,0.00,Wunderground v.1.15,2013-12-08 07:18:00,
2013-12-08 02:20:00,24.0,21.0,30.48,East,96,1.0,5.0,88,0.00,,,0.00,Wunderground v.1.15,2013-12-08 07:20:00,
2013-12-08 02:21:00,24.0,21.0,30.48,East,79,1.0,5.0,88,0.00,,,0.00,Wunderground v.1.15,2013-12-08 07:21:00,
2013-12-08 02:23:00,24.0,21.0,30.48,ENE,65,1.0,5.0,88,0.00,,,0.00,Wunderground v.1.15,2013-12-08 07:23:00,
2013-12-08 02:26:00,24.1,21.1,30.48,ENE,74,2.0,5.0,88,0.00,,,0.00,Wunderground v.1.15,2013-12-08 07:26:00,
2013-12-08 02:27:00,24.1,21.3,30.48,ENE,74,2.0,2.0,89,0.00,,,0.00,Wunderground v.1.15,2013-12-08 07:27:00,
2013-12-08 02:29:00,24.1,21.3,30.48,East,80,2.0,5.0,89,0.00,,,0.00,Wunderground v.1.15,2013-12-08 07:29:00,
2013-12-08 02:30:00,24.1,21.1,30.48,East,80,2.0,5.0,88,0.00,,,0.00,Wunderground v.1.15,2013-12-08 07:30:00,
2013-12-08 02:31:00,24.1,21.3,30.48,NNE,12,2.0,5.0,89,0.00,,,0.00,Wunderground v.1.15,2013-12-08 07:31:00,
2013-12-08 02:32:00,24.1,21.1,30.48,ENE,67,1.0,5.0,88,0.00,,,0.00,Wunderground v.1.15,2013-12-08 07:32:00,
2013-12-08 02:34:00,24.1,21.1,30.47,ENE,69,1.0,5.0,88,0.00,,,0.00,Wunderground v.1.15,2013-12-08 07:34:00,
2013-12-08 02:36:00,24.1,21.1,30.47,ENE,76,1.0,5.0,88,0.00,,,0.00,Wunderground v.1.15,2013-12-08 07:36:00,
2013-12-08 02:37:00,24.1,21.1,30.47,ENE,74,2.0,5.0,88,0.00,,,0.00,Wunderground v.1.15,2013-12-08 07:37:00,
2013-12-08 02:38:00,24.1,21.1,30.47,ENE,62,2.0,5.0,88,0.00,,,0.00,Wunderground v.1.15,2013-12-08 07:38:00,
2013-12-08 02:40:00,24.1,21.1,30.46,NE,48,2.0,5.0,88,0.00,,,0.00,Wunderground v.1.15,2013-12-08 07:40:00,
2013-12-08 02:41:00,24.1,21.1,30.46,East,84,2.0,5.0,88,0.00,,,0.00,Wunderground v.1.15,2013-12-08 07:41:00,
2013-12-08 02:45:00,24.1,21.1,30.46,East,92,2.0,6.0,88,0.00,,,0.00,Wunderground v.1.15,2013-12-08 07:45:00,
2013-12-08 02:46:00,24.2,21.2,30.46,NE,55,2.0,6.0,88,0.00,,,0.00,Wunderground v.1.15,2013-12-08 07:46:00,
2013-12-08 02:47:00,24.1,21.1,30.45,ENE,77,2.0,5.0,88,0.00,,,0.00,Wunderground v.1.15,2013-12-08 07:47:00,
2013-12-08 02:48:00,24.2,21.2,30.45,ENE,78,2.0,5.0,88,0.00,,,0.00,Wunderground v.1.15,2013-12-08 07:48:00,
2013-12-08 02:50:00,24.2,21.2,30.45,ENE,64,2.0,5.0,88,0.00,,,0.00,Wunderground v.1.15,2013-12-08 07:50:00,
2013-12-08 02:51:00,24.1,21.1,30.45,ENE,70,2.0,5.0,88,0.00,,,0.00,Wunderground v.1.15,2013-12-08 07:51:00,
2013-12-08 02:53:00,24.2,21.2,30.45,East,82,2.0,5.0,88,0.00,,,0.00,Wunderground v.1.15,2013-12-08 07:53:00,
2013-12-08 02:54:00,24.2,21.2,30.45,East,82,2.0,5.0,88,0.00,,,0.00,Wunderground v.1.15,2013-12-08 07:54:00,
2013-12-08 02:56:00,24.2,21.2,30.46,East,82,1.0,5.0,88,0.00,,,0.00,Wunderground v.1.15,2013-12-08 07:56:00,
2013-12-08 02:59:00,24.1,21.1,30.46,East,94,1.0,5.0,88,0.00,,,0.00,Wunderground v.1.15,2013-12-08 07:59:00,
2013-12-08 03:00:00,24.1,21.1,30.46,East,94,1.0,5.0,88,0.00,,,0.00,Wunderground v.1.15,2013-12-08 08:00:00,
2013-12-08 03:03:00,24.1,21.3,30.46,East,85,1.0,5.0,89,0.00,,,0.00,Wunderground v.1.15,2013-12-08 08:03:00,
2013-12-08 03:04:00,24.1,21.3,30.47,ENE,74,1.0,5.0,89,0.00,,,0.00,Wunderground v.1.15,2013-12-08 08:04:00,
2013-12-08 03:05:00,24.1,21.1,30.47,NE,53,1.0,5.0,88,0.00,,,0.00,Wunderground v.1.15,2013-12-08 08:05:00,
2013-12-08 03:09:00,24.0,21.0,30.46,NE,34,1.0,5.0,88,0.00,,,0.00,Wunderground v.1.15,2013-12-08 08:09:00,
2013-12-08 03:11:00,24.1,21.1,30.46,ENE,76,2.0,5.0,88,0.00,,,0.00,Wunderground v.1.15,2013-12-08 08:11:00,
2013-12-08 03:12:00,24.0,21.0,30.46,ENE,70,2.0,5.0,88,0.00,,,0.00,Wunderground v.1.15,2013-12-08 08:12:00,
2013-12-08 03:13:00,24.1,21.1,30.45,ENE,71,2.0,5.0,88,0.00,,,0.00,Wunderground v.1.15,2013-12-08 08:13:00,
2013-12-08 03:14:00,24.1,21.1,30.45,East,98,2.0,5.0,88,0.00,,,0.00,Wunderground v.1.15,2013-12-08 08:14:00,
2013-12-08 03:17:00,24.1,21.1,30.45,ENE,68,2.0,5.0,88,0.00,,,0.00,Wunderground v.1.15,2013-12-08 08:17:00,
2013-12-08 03:19:00,24.1,21.1,30.45,ENE,76,2.0,5.0,88,0.00,,,0.00,Wunderground v.1.15,2013-12-08 08:19:00,
2013-12-08 03:21:00,24.1,21.1,30.45,ENE,73,2.0,5.0,88,0.00,,,0.00,Wunderground v.1.15,2013-12-08 08:21:00,
2013-12-08 03:22:00,24.1,21.1,30.46,ENE,73,2.0,5.0,88,0.00,,,0.00,Wunderground v.1.15,2013-12-08 08:22:00,
2013-12-08 03:23:00,24.1,21.1,30.46,ENE,71,2.0,5.0,88,0.00,,,0.00,Wunderground v.1.15,2013-12-08 08:23:00,
2013-12-08 03:24:00,24.1,21.1,30.46,ENE,72,2.0,5.0,88,0.00,,,0.00,Wunderground v.1.15,2013-12-08 08:24:00,
2013-12-08 03:25:00,24.1,21.1,30.46,ENE,72,2.0,5.0,88,0.00,,,0.00,Wunderground v.1.15,2013-12-08 08:25:00,
2013-12-08 03:27:00,24.1,21.3,30.46,ENE,67,2.0,2.0,89,0.00,,,0.00,Wunderground v.1.15,2013-12-08 08:27:00,
2013-12-08 03:29:00,24.1,21.1,30.46,ENE,59,1.0,5.0,88,0.00,,,0.00,Wunderground v.1.15,2013-12-08 08:29:00,
2013-12-08 03:30:00,24.1,21.1,30.46,NE,51,2.0,5.0,88,0.00,,,0.00,Wunderground v.1.15,2013-12-08 08:30:00,
2013-12-08 03:32:00,24.1,21.1,30.46,ENE,60,2.0,5.0,88,0.00,,,0.00,Wunderground v.1.15,2013-12-08 08:32:00,
2013-12-08 03:35:00,24.1,21.1,30.46,NE,40,2.0,5.0,88,0.00,,,0.00,Wunderground v.1.15,2013-12-08 08:35:00,
2013-12-08 03:38:00,24.0,21.0,30.47,ENE,75,2.0,2.0,88,0.00,,,0.00,Wunderground v.1.15,2013-12-08 08:38:00,
2013-12-08 03:39:00,24.0,21.0,30.46,ESE,102,1.0,4.0,88,0.00,,,0.00,Wunderground v.1.15,2013-12-08 08:39:00,
2013-12-08 03:40:00,24.0,21.0,30.46,East,85,1.0,4.0,88,0.00,,,0.00,Wunderground v.1.15,2013-12-08 08:40:00,
2013-12-08 03:43:00,24.1,21.1,30.46,ENE,72,1.0,4.0,88,0.00,,,0.00,Wunderground v.1.15,2013-12-08 08:43:00,
2013-12-08 03:44:00,24.1,21.1,30.46,East,86,1.0,4.0,88,0.00,,,0.00,Wunderground v.1.15,2013-12-08 08:44:00,
2013-12-08 03:47:00,24.1,21.1,30.45,East,99,1.0,4.0,88,0.00,,,0.00,Wunderground v.1.15,2013-12-08 08:47:00,
2013-12-08 03:48:00,24.1,21.1,30.45,ENE,65,1.0,3.0,88,0.00,,,0.00,Wunderground v.1.15,2013-12-08 08:48:00,
2013-12-08 03:53:00,24.1,21.1,30.46,East,81,2.0,4.0,88,0.00,,,0.00,Wunderground v.1.15,2013-12-08 08:53:00,
2013-12-08 03:54:00,24.1,21.1,30.46,East,97,2.0,4.0,88,0.00,,,0.00,Wunderground v.1.15,2013-12-08 08:54:00,
2013-12-08 03:55:00,24.2,21.2,30.46,East,88,2.0,4.0,88,0.00,,,0.00,Wunderground v.1.15,2013-12-08 08:55:00,
2013-12-08 03:57:00,24.2,21.2,30.45,ENE,63,2.0,2.0,88,0.00,,,0.00,Wunderground v.1.15,2013-12-08 08:57:00,
2013-12-08 04:00:00,24.2,21.4,30.46,East,84,2.0,4.0,89,0.00,,,0.00,Wunderground v.1.15,2013-12-08 09:00:00,
2013-12-08 04:02:00,24.2,21.2,30.46,ENE,67,1.0,5.0,88,0.00,,,0.00,Wunderground v.1.15,2013-12-08 09:02:00,
2013-12-08 04:03:00,24.2,21.2,30.45,ENE,68,1.0,5.0,88,0.00,,,0.00,Wunderground v.1.15,2013-12-08 09:03:00,
2013-12-08 04:05:00,24.2,21.4,30.45,ENE,63,1.0,5.0,89,0.00,,,0.00,Wunderground v.1.15,2013-12-08 09:05:00,
2013-12-08 04:07:00,24.2,21.2,30.45,ENE,65,1.0,4.0,88,0.00,,,0.00,Wunderground v.1.15,2013-12-08 09:07:00,
2013-12-08 04:08:00,24.2,21.2,30.45,ENE,64,1.0,4.0,88,0.00,,,0.00,Wunderground v.1.15,2013-12-08 09:08:00,
2013-12-08 04:09:00,24.1,21.3,30.45,ENE,77,1.0,4.0,89,0.00,,,0.00,Wunderground v.1.15,2013-12-08 09:09:00,
2013-12-08 04:10:00,24.1,21.3,30.45,ENE,77,1.0,4.0,89,0.00,,,0.00,Wunderground v.1.15,2013-12-08 09:10:00,
2013-12-08 04:14:00,24.1,21.3,30.45,ENE,73,1.0,4.0,89,0.00,,,0.00,Wunderground v.1.15,2013-12-08 09:14:00,
2013-12-08 04:15:00,24.0,21.2,30.44,ENE,76,1.0,4.0,89,0.00,,,0.00,Wunderground v.1.15,2013-12-08 09:15:00,
2013-12-08 04:17:00,24.0,21.2,30.45,ENE,76,1.0,4.0,89,0.00,,,0.00,Wunderground v.1.15,2013-12-08 09:17:00,
2013-12-08 04:18:00,24.0,21.2,30.44,ENE,77,2.0,4.0,89,0.00,,,0.00,Wunderground v.1.15,2013-12-08 09:18:00,
2013-12-08 04:22:00,24.0,21.5,30.44,ESE,104,2.0,4.0,90,0.00,,,0.00,Wunderground v.1.15,2013-12-08 09:22:00,
2013-12-08 04:23:00,24.0,21.5,30.44,ESE,104,2.0,4.0,90,0.00,,,0.00,Wunderground v.1.15,2013-12-08 09:23:00,
2013-12-08 04:24:00,24.0,21.5,30.45,ESE,104,2.0,4.0,90,0.00,,,0.00,Wunderground v.1.15,2013-12-08 09:24:00,
2013-12-08 04:26:00,24.0,21.5,30.44,ESE,106,1.0,4.0,90,0.00,,,0.00,Wunderground v.1.15,2013-12-08 09:26:00,
2013-12-08 04:27:00,24.0,21.5,30.44,East,99,1.0,4.0,90,0.00,,,0.00,Wunderground v.1.15,2013-12-08 09:27:00,
2013-12-08 04:29:00,24.0,21.5,30.43,East,81,1.0,4.0,90,0.00,,,0.00,Wunderground v.1.15,2013-12-08 09:29:00,
2013-12-08 04:30:00,24.0,21.5,30.43,ENE,74,1.0,4.0,90,0.00,,,0.00,Wunderground v.1.15,2013-12-08 09:30:00,
2013-12-08 04:31:00,23.9,21.4,30.43,East,89,1.0,4.0,90,0.00,,,0.00,Wunderground v.1.15,2013-12-08 09:31:00,
2013-12-08 04:32:00,24.0,21.5,30.43,ENE,71,1.0,4.0,90,0.00,,,0.00,Wunderground v.1.15,2013-12-08 09:32:00,
2013-12-08 04:34:00,23.9,21.4,30.43,ENE,78,1.0,4.0,90,0.00,,,0.00,Wunderground v.1.15,2013-12-08 09:34:00,
2013-12-08 04:36:00,23.9,21.4,30.43,ENE,69,2.0,4.0,90,0.00,,,0.00,Wunderground v.1.15,2013-12-08 09:36:00,
2013-12-08 04:38:00,24.0,21.5,30.42,ESE,108,1.0,4.0,90,0.00,,,0.00,Wunderground v.1.15,2013-12-08 09:38:00,
2013-12-08 04:39:00,24.0,21.5,30.42,ESE,107,1.0,4.0,90,0.00,,,0.00,Wunderground v.1.15,2013-12-08 09:39:00,
2013-12-08 04:42:00,24.0,21.8,30.42,East,83,1.0,4.0,91,0.00,,,0.00,Wunderground v.1.15,2013-12-08 09:42:00,
2013-12-08 04:44:00,24.0,21.5,30.42,ENE,76,1.0,4.0,90,0.00,,,0.00,Wunderground v.1.15,2013-12-08 09:44:00,
2013-12-08 04:46:00,23.9,21.7,30.42,ENE,61,1.0,4.0,91,0.00,,,0.00,Wunderground v.1.15,2013-12-08 09:46:00,
2013-12-08 04:47:00,23.9,21.7,30.42,NE,51,1.0,4.0,91,0.00,,,0.00,Wunderground v.1.15,2013-12-08 09:47:00,
2013-12-08 04:49:00,23.9,21.4,30.41,NE,52,1.0,4.0,90,0.00,,,0.00,Wunderground v.1.15,2013-12-08 09:49:00,
2013-12-08 04:50:00,23.9,21.4,30.40,NE,54,1.0,4.0,90,0.00,,,0.00,Wunderground v.1.15,2013-12-08 09:50:00,
2013-12-08 04:51:00,23.9,21.4,30.39,NE,54,1.0,4.0,90,0.00,,,0.00,Wunderground v.1.15,2013-12-08 09:51:00,
2013-12-08 04:55:00,23.9,21.7,30.40,NE,49,1.0,4.0,91,0.00,,,0.00,Wunderground v.1.15,2013-12-08 09:55:00,
2013-12-08 04:57:00,23.9,21.7,30.41,ENE,69,2.0,2.0,91,0.00,,,0.00,Wunderground v.1.15,2013-12-08 09:57:00,
2013-12-08 04:58:00,23.9,21.7,30.41,ENE,69,2.0,4.0,91,0.00,,,0.00,Wunderground v.1.15,2013-12-08 09:58:00,
2013-12-08 04:59:00,23.9,21.7,30.40,SE,137,2.0,4.0,91,0.00,,,0.00,Wunderground v.1.15,2013-12-08 09:59:00,
2013-12-08 05:03:00,24.0,21.8,30.40,East,95,1.0,4.0,91,0.00,,,0.00,Wunderground v.1.15,2013-12-08 10:03:00,
2013-12-08 05:06:00,24.1,21.9,30.39,ENE,73,1.0,4.0,91,0.00,,,0.00,Wunderground v.1.15,2013-12-08 10:06:00,
2013-12-08 05:08:00,24.1,21.9,30.39,East,86,1.0,4.0,91,0.00,,,0.00,Wunderground v.1.15,2013-12-08 10:08:00,
2013-12-08 05:09:00,24.1,21.9,30.39,NE,43,1.0,4.0,91,0.00,,,0.00,Wunderground v.1.15,2013-12-08 10:09:00,
2013-12-08 05:10:00,24.1,21.9,30.39,ENE,62,2.0,4.0,91,0.00,,,0.00,Wunderground v.1.15,2013-12-08 10:10:00,
2013-12-08 05:12:00,24.0,21.8,30.39,East,80,2.0,4.0,91,0.00,,,0.00,Wunderground v.1.15,2013-12-08 10:12:00,
2013-12-08 05:14:00,24.0,21.8,30.38,East,83,2.0,4.0,91,0.00,,,0.00,Wunderground v.1.15,2013-12-08 10:14:00,
2013-12-08 05:17:00,24.0,21.8,30.39,ENE,57,2.0,2.0,91,0.00,,,0.00,Wunderground v.1.15,2013-12-08 10:17:00,
2013-12-08 05:19:00,24.0,21.8,30.39,ENE,60,2.0,4.0,91,0.00,,,0.00,Wunderground v.1.15,2013-12-08 10:19:00,
2013-12-08 05:22:00,24.0,21.8,30.39,NE,44,1.0,4.0,91,0.00,,,0.00,Wunderground v.1.15,2013-12-08 10:22:00,
2013-12-08 05:23:00,24.0,21.8,30.39,NE,48,1.0,4.0,91,0.00,,,0.00,Wunderground v.1.15,2013-12-08 10:23:00,
2013-12-08 05:25:00,24.0,21.8,30.40,ENE,62,1.0,4.0,91,0.00,,,0.00,Wunderground v.1.15,2013-12-08 10:25:00,
2013-12-08 05:27:00,24.0,21.8,30.40,ENE,58,1.0,1.0,91,0.00,,,0.00,Wunderground v.1.15,2013-12-08 10:27:00,
2013-12-08 05:28:00,24.1,21.9,30.39,East,90,1.0,2.0,91,0.00,,,0.00,Wunderground v.1.15,2013-12-08 10:28:00,
2013-12-08 05:29:00,24.1,21.9,30.39,ENE,68,1.0,4.0,91,0.00,,,0.00,Wunderground v.1.15,2013-12-08 10:29:00,
2013-12-08 05:31:00,24.1,21.9,30.38,East,86,1.0,4.0,91,0.00,,,0.00,Wunderground v.1.15,2013-12-08 10:31:00,
2013-12-08 05:33:00,24.2,22.0,30.38,East,93,1.0,4.0,91,0.00,,,0.00,Wunderground v.1.15,2013-12-08 10:33:00,
2013-12-08 05:35:00,24.2,22.0,30.39,East,93,1.0,4.0,91,0.00,,,0.00,Wunderground v.1.15,2013-12-08 10:35:00,
2013-12-08 05:36:00,24.2,22.0,30.39,East,93,1.0,4.0,91,0.00,,,0.00,Wunderground v.1.15,2013-12-08 10:36:00,
2013-12-08 05:38:00,24.3,22.1,30.38,East,93,1.0,3.0,91,0.00,,,0.00,Wunderground v.1.15,2013-12-08 10:38:00,
2013-12-08 05:39:00,24.3,22.1,30.38,East,93,1.0,3.0,91,0.00,,,0.00,Wunderground v.1.15,2013-12-08 10:39:00,
2013-12-08 05:41:00,24.4,22.2,30.38,East,101,1.0,3.0,91,0.00,,,0.00,Wunderground v.1.15,2013-12-08 10:41:00,
2013-12-08 05:42:00,24.4,22.2,30.38,East,97,1.0,3.0,91,0.00,,,0.00,Wunderground v.1.15,2013-12-08 10:42:00,
2013-12-08 05:43:00,24.4,22.2,30.38,East,97,1.0,3.0,91,0.00,,,0.00,Wunderground v.1.15,2013-12-08 10:43:00,
2013-12-08 05:45:00,24.5,22.2,30.38,East,96,1.0,3.0,91,0.00,,,0.00,Wunderground v.1.15,2013-12-08 10:45:00,
2013-12-08 05:46:00,24.5,22.2,30.37,East,97,1.0,3.0,91,0.00,,,0.00,Wunderground v.1.15,2013-12-08 10:46:00,
2013-12-08 05:47:00,24.5,22.2,30.37,ESE,111,1.0,3.0,91,0.00,,,0.00,Wunderground v.1.15,2013-12-08 10:47:00,
2013-12-08 05:48:00,24.5,22.2,30.37,ESE,111,1.0,3.0,91,0.00,,,0.00,Wunderground v.1.15,2013-12-08 10:48:00,
2013-12-08 05:49:00,24.6,22.3,30.37,ESE,111,1.0,3.0,91,0.00,,,0.00,Wunderground v.1.15,2013-12-08 10:49:00,
2013-12-08 05:51:00,24.6,22.3,30.37,ENE,76,1.0,3.0,91,0.00,,,0.00,Wunderground v.1.15,2013-12-08 10:51:00,
2013-12-08 05:53:00,24.6,22.3,30.36,East,88,1.0,3.0,91,0.00,,,0.00,Wunderground v.1.15,2013-12-08 10:53:00,
2013-12-08 05:55:00,24.6,22.3,30.36,East,84,2.0,3.0,91,0.00,,,0.00,Wunderground v.1.15,2013-12-08 10:55:00,
2013-12-08 05:56:00,24.6,22.3,30.36,East,82,2.0,3.0,91,0.00,,,0.00,Wunderground v.1.15,2013-12-08 10:56:00,
2013-12-08 05:58:00,24.7,22.4,30.36,ESE,118,2.0,3.0,91,0.00,,,0.00,Wunderground v.1.15,2013-12-08 10:58:00,
2013-12-08 05:59:00,24.7,22.4,30.36,East,93,2.0,3.0,91,0.00,,,0.00,Wunderground v.1.15,2013-12-08 10:59:00,
2013-12-08 06:01:00,24.7,22.4,30.36,ENE,67,2.0,3.0,91,0.00,,,0.00,Wunderground v.1.15,2013-12-08 11:01:00,
2013-12-08 06:02:00,24.7,22.4,30.36,ENE,67,2.0,3.0,91,0.00,,,0.00,Wunderground v.1.15,2013-12-08 11:02:00,
2013-12-08 06:05:00,24.8,22.5,30.36,East,90,2.0,3.0,91,0.00,,,0.00,Wunderground v.1.15,2013-12-08 11:05:00,
2013-12-08 06:07:00,24.8,22.5,30.35,East,84,2.0,2.0,91,0.00,,,0.00,Wunderground v.1.15,2013-12-08 11:07:00,
2013-12-08 06:10:00,24.9,22.6,30.36,East,80,1.0,3.0,91,0.00,,,0.00,Wunderground v.1.15,2013-12-08 11:10:00,
2013-12-08 06:12:00,24.8,22.5,30.36,ENE,71,1.0,3.0,91,0.00,,,0.00,Wunderground v.1.15,2013-12-08 11:12:00,
2013-12-08 06:13:00,24.8,22.5,30.36,ENE,61,1.0,3.0,91,0.00,,,0.00,Wunderground v.1.15,2013-12-08 11:13:00,
2013-12-08 06:15:00,24.8,22.5,30.36,ENE,74,1.0,3.0,91,0.00,,,0.00,Wunderground v.1.15,2013-12-08 11:15:00,
2013-12-08 06:19:00,24.9,22.9,30.35,East,85,1.0,3.0,92,0.00,,,0.00,Wunderground v.1.15,2013-12-08 11:19:00,
2013-12-08 06:20:00,24.9,22.9,30.36,East,86,1.0,3.0,92,0.00,,,0.00,Wunderground v.1.15,2013-12-08 11:20:00,
2013-12-08 06:23:00,25.0,23.0,30.36,ENE,78,1.0,3.0,92,0.00,,,0.00,Wunderground v.1.15,2013-12-08 11:23:00,
2013-12-08 06:24:00,25.0,23.0,30.36,ENE,78,1.0,3.0,92,0.00,,,0.00,Wunderground v.1.15,2013-12-08 11:24:00,
2013-12-08 06:26:00,25.1,23.1,30.35,ENE,78,1.0,3.0,92,0.00,,,0.00,Wunderground v.1.15,2013-12-08 11:26:00,
2013-12-08 06:27:00,25.1,22.8,30.35,ENE,78,1.0,1.0,91,0.00,,,0.00,Wunderground v.1.15,2013-12-08 11:27:00,
2013-12-08 06:28:00,25.0,22.7,30.35,ENE,78,1.0,3.0,91,0.00,,,0.00,Wunderground v.1.15,2013-12-08 11:28:00,
2013-12-08 06:29:00,25.0,22.7,30.35,ENE,78,1.0,3.0,91,0.00,,,0.00,Wunderground v.1.15,2013-12-08 11:29:00,
2013-12-08 06:30:00,25.0,22.7,30.35,East,80,1.0,3.0,91,0.00,,,0.00,Wunderground v.1.15,2013-12-08 11:30:00,
2013-12-08 06:31:00,25.0,22.7,30.35,East,80,1.0,3.0,91,0.00,,,0.00,Wunderground v.1.15,2013-12-08 11:31:00,
2013-12-08 06:32:00,25.0,22.7,30.36,East,80,1.0,3.0,91,0.00,,,0.00,Wunderground v.1.15,2013-12-08 11:32:00,
2013-12-08 06:35:00,24.9,22.6,30.36,NE,46,1.0,3.0,91,0.00,,,0.00,Wunderground v.1.15,2013-12-08 11:35:00,
2013-12-08 06:36:00,24.9,22.6,30.36,ENE,76,1.0,3.0,91,0.00,,,0.00,Wunderground v.1.15,2013-12-08 11:36:00,
2013-12-08 06:38:00,24.9,22.6,30.36,ENE,76,1.0,3.0,91,0.00,,,0.00,Wunderground v.1.15,2013-12-08 11:38:00,
2013-12-08 06:39:00,25.0,22.7,30.36,ENE,76,1.0,3.0,91,0.00,,,0.00,Wunderground v.1.15,2013-12-08 11:39:00,
2013-12-08 06:41:00,25.0,22.7,30.35,ENE,76,1.0,3.0,91,0.00,,,0.00,Wunderground v.1.15,2013-12-08 11:41:00,
2013-12-08 06:43:00,25.1,22.8,30.35,ENE,64,1.0,3.0,91,0.00,,,0.00,Wunderground v.1.15,2013-12-08 11:43:00,
2013-12-08 06:46:00,25.1,22.8,30.35,East,82,1.0,3.0,91,0.00,,,0.00,Wunderground v.1.15,2013-12-08 11:46:00,
2013-12-08 06:49:00,25.1,22.8,30.34,SE,128,1.0,3.0,91,0.00,,,0.00,Wunderground v.1.15,2013-12-08 11:49:00,
2013-12-08 06:52:00,25.1,22.8,30.34,WNW,290,1.0,3.0,91,0.00,,,0.00,Wunderground v.1.15,2013-12-08 11:52:00,
2013-12-08 06:53:00,25.1,22.8,30.35,WNW,290,1.0,3.0,91,0.00,,,0.00,Wunderground v.1.15,2013-12-08 11:53:00,
2013-12-08 06:55:00,25.1,22.8,30.35,WNW,290,1.0,3.0,91,0.00,,,0.00,Wunderground v.1.15,2013-12-08 11:55:00,
2013-12-08 06:56:00,25.1,22.8,30.36,WNW,290,1.0,3.0,91,0.00,,,0.00,Wunderground v.1.15,2013-12-08 11:56:00,
2013-12-08 06:59:00,25.2,22.9,30.35,WNW,290,1.0,3.0,91,0.00,,,0.00,Wunderground v.1.15,2013-12-08 11:59:00,
2013-12-08 07:00:00,25.2,22.9,30.35,ENE,75,1.0,3.0,91,0.00,,,0.00,Wunderground v.1.15,2013-12-08 12:00:00,
2013-12-08 07:02:00,25.2,22.9,30.35,ENE,75,1.0,3.0,91,0.00,,,0.00,Wunderground v.1.15,2013-12-08 12:02:00,
2013-12-08 07:03:00,25.2,22.9,30.36,East,92,1.0,3.0,91,0.00,,,0.00,Wunderground v.1.15,2013-12-08 12:03:00,
2013-12-08 07:05:00,25.2,22.9,30.35,ENE,66,1.0,3.0,91,0.00,,,0.00,Wunderground v.1.15,2013-12-08 12:05:00,
2013-12-08 07:06:00,25.2,22.9,30.35,East,86,1.0,3.0,91,0.00,,,0.00,Wunderground v.1.15,2013-12-08 12:06:00,
2013-12-08 07:07:00,25.2,22.9,30.35,East,86,1.0,3.0,91,0.00,,,0.00,Wunderground v.1.15,2013-12-08 12:07:00,
2013-12-08 07:08:00,25.2,22.9,30.36,East,86,1.0,3.0,91,0.00,,,0.00,Wunderground v.1.15,2013-12-08 12:08:00,
2013-12-08 07:13:00,25.4,23.4,30.36,East,86,1.0,3.0,92,0.00,,,0.00,Wunderground v.1.15,2013-12-08 12:13:00,
2013-12-08 07:16:00,25.4,23.1,30.36,ENE,73,1.0,3.0,91,0.00,,,0.00,Wunderground v.1.15,2013-12-08 12:16:00,
2013-12-08 07:17:00,25.3,23.0,30.36,ENE,73,1.0,1.0,91,0.00,,,0.00,Wunderground v.1.15,2013-12-08 12:17:00,
2013-12-08 07:18:00,25.3,23.0,30.36,East,82,1.0,2.0,91,0.00,,,0.00,Wunderground v.1.15,2013-12-08 12:18:00,
2013-12-08 07:21:00,25.4,23.1,30.36,ESE,103,1.0,3.0,91,0.00,,,0.00,Wunderground v.1.15,2013-12-08 12:21:00,
2013-12-08 07:22:00,25.4,23.1,30.35,East,101,1.0,3.0,91,0.00,,,0.00,Wunderground v.1.15,2013-12-08 12:22:00,
2013-12-08 07:23:00,25.4,23.1,30.35,ENE,78,1.0,3.0,91,0.00,,,0.00,Wunderground v.1.15,2013-12-08 12:23:00,
2013-12-08 07:24:00,25.4,23.1,30.35,ENE,72,2.0,3.0,91,0.00,,,0.00,Wunderground v.1.15,2013-12-08 12:24:00,
2013-12-08 07:27:00,25.5,23.5,30.34,East,92,2.0,2.0,92,0.00,,,0.00,Wunderground v.1.15,2013-12-08 12:27:00,
2013-12-08 07:28:00,25.5,23.5,30.34,ENE,62,2.0,3.0,92,0.00,,,0.00,Wunderground v.1.15,2013-12-08 12:28:00,
2013-12-08 07:30:00,25.6,23.6,30.34,ENE,63,2.0,3.0,92,0.00,,,0.00,Wunderground v.1.15,2013-12-08 12:30:00,
2013-12-08 07:31:00,25.6,23.6,30.34,ENE,63,2.0,3.0,92,0.00,,,0.00,Wunderground v.1.15,2013-12-08 12:31:00,
2013-12-08 07:32:00,25.6,23.6,30.34,ENE,65,1.0,3.0,92,0.00,,,0.00,Wunderground v.1.15,2013-12-08 12:32:00,
2013-12-08 07:33:00,25.6,23.6,30.34,ENE,65,1.0,3.0,92,0.00,,,0.00,Wunderground v.1.15,2013-12-08 12:33:00,
2013-12-08 07:38:00,25.6,23.6,30.34,ENE,69,1.0,3.0,92,0.00,,,0.00,Wunderground v.1.15,2013-12-08 12:38:00,
2013-12-08 07:39:00,25.5,23.5,30.34,ENE,69,1.0,3.0,92,0.00,,,0.00,Wunderground v.1.15,2013-12-08 12:39:00,
2013-12-08 07:40:00,25.6,23.6,30.34,East,86,1.0,3.0,92,0.00,,,0.00,Wunderground v.1.15,2013-12-08 12:40:00,
2013-12-08 07:43:00,25.7,23.7,30.33,East,92,1.0,3.0,92,0.00,,,0.00,Wunderground v.1.15,2013-12-08 12:43:00,
2013-12-08 07:44:00,25.6,23.6,30.33,ENE,69,1.0,3.0,92,0.00,,,0.00,Wunderground v.1.15,2013-12-08 12:44:00,
2013-12-08 07:45:00,25.6,23.6,30.33,ENE,69,1.0,3.0,92,0.00,,,0.00,Wunderground v.1.15,2013-12-08 12:45:00,
2013-12-08 07:46:00,25.6,23.6,30.33,ENE,69,1.0,3.0,92,0.00,,,0.00,Wunderground v.1.15,2013-12-08 12:46:00,
2013-12-08 07:47:00,25.6,23.6,30.33,NE,56,1.0,3.0,92,0.00,,,0.00,Wunderground v.1.15,2013-12-08 12:47:00,
2013-12-08 07:48:00,25.6,23.6,30.33,ENE,69,1.0,3.0,92,0.00,,,0.00,Wunderground v.1.15,2013-12-08 12:48:00,
2013-12-08 07:50:00,25.6,23.6,30.33,ENE,72,2.0,3.0,92,0.00,,,0.00,Wunderground v.1.15,2013-12-08 12:50:00,
2013-12-08 07:51:00,25.6,23.6,30.33,ENE,73,1.0,3.0,92,0.00,,,0.00,Wunderground v.1.15,2013-12-08 12:51:00,
2013-12-08 07:52:00,25.6,23.6,30.33,ENE,73,1.0,3.0,92,0.00,,,0.00,Wunderground v.1.15,2013-12-08 12:52:00,
2013-12-08 07:54:00,25.6,23.6,30.33,ENE,69,1.0,3.0,92,0.00,,,0.00,Wunderground v.1.15,2013-12-08 12:54:00,
2013-12-08 07:56:00,25.6,23.6,30.33,ENE,68,1.0,3.0,92,0.00,,,0.00,Wunderground v.1.15,2013-12-08 12:56:00,
2013-12-08 07:57:00,25.5,23.5,30.33,ENE,68,1.0,1.0,92,0.00,,,0.00,Wunderground v.1.15,2013-12-08 12:57:00,
2013-12-08 07:58:00,25.5,23.5,30.33,ENE,68,1.0,3.0,92,0.00,,,0.00,Wunderground v.1.15,2013-12-08 12:58:00,
2013-12-08 08:00:00,25.5,23.5,30.33,ENE,64,1.0,3.0,92,0.00,,,0.00,Wunderground v.1.15,2013-12-08 13:00:00,
2013-12-08 08:01:00,25.5,23.5,30.33,ENE,65,1.0,3.0,92,0.00,,,0.00,Wunderground v.1.15,2013-12-08 13:01:00,
2013-12-08 08:04:00,25.5,23.5,30.32,ENE,59,1.0,3.0,92,0.00,,,0.00,Wunderground v.1.15,2013-12-08 13:04:00,
2013-12-08 08:05:00,25.4,23.4,30.32,ENE,72,1.0,3.0,92,0.00,,,0.00,Wunderground v.1.15,2013-12-08 13:05:00,
2013-12-08 08:06:00,25.4,23.4,30.31,ENE,68,1.0,3.0,92,0.00,,,0.00,Wunderground v.1.15,2013-12-08 13:06:00,
2013-12-08 08:07:00,25.4,23.4,30.32,ESE,106,1.0,3.0,92,0.00,,,0.00,Wunderground v.1.15,2013-12-08 13:07:00,
2013-12-08 08:08:00,25.4,23.4,30.32,ENE,71,2.0,3.0,92,0.00,,,0.00,Wunderground v.1.15,2013-12-08 13:08:00,
2013-12-08 08:13:00,25.4,23.4,30.33,ENE,61,1.0,3.0,92,0.00,,,0.00,Wunderground v.1.15,2013-12-08 13:13:00,
2013-12-08 08:14:00,25.4,23.4,30.33,ENE,58,1.0,3.0,92,0.00,,,0.00,Wunderground v.1.15,2013-12-08 13:14:00,
2013-12-08 08:15:00,25.4,23.4,30.33,NNE,32,1.0,3.0,92,0.00,,,0.00,Wunderground v.1.15,2013-12-08 13:15:00,
2013-12-08 08:16:00,25.4,23.4,30.33,NE,46,1.0,3.0,92,0.00,,,0.00,Wunderground v.1.15,2013-12-08 13:16:00,
2013-12-08 08:19:00,25.4,23.4,30.33,ENE,76,1.0,3.0,92,0.00,,,0.00,Wunderground v.1.15,2013-12-08 13:19:00,
2013-12-08 08:20:00,25.4,23.4,30.34,ENE,76,1.0,3.0,92,0.00,,,0.00,Wunderground v.1.15,2013-12-08 13:20:00,
2013-12-08 08:21:00,25.4,23.4,30.35,ENE,76,1.0,3.0,92,0.00,,,0.00,Wunderground v.1.15,2013-12-08 13:21:00,
2013-12-08 08:24:00,25.4,23.4,30.36,ENE,76,0.0,3.0,92,0.00,,,0.00,Wunderground v.1.15,2013-12-08 13:24:00,
2013-12-08 08:26:00,25.5,23.5,30.37,ENE,76,0.0,3.0,92,0.00,,,0.00,Wunderground v.1.15,2013-12-08 13:26:00,
2013-12-08 08:27:00,25.5,23.5,30.38,ENE,76,0.0,3.0,92,0.00,,,0.00,Wunderground v.1.15,2013-12-08 13:27:00,
2013-12-08 08:29:00,25.6,23.6,30.37,ENE,76,0.0,3.0,92,0.00,,,0.00,Wunderground v.1.15,2013-12-08 13:29:00,
2013-12-08 08:30:00,25.5,23.5,30.37,ENE,76,0.0,3.0,92,0.00,,,0.00,Wunderground v.1.15,2013-12-08 13:30:00,
2013-12-08 08:32:00,25.6,23.6,30.38,ENE,67,0.0,3.0,92,0.00,,,0.00,Wunderground v.1.15,2013-12-08 13:32:00,
2013-12-08 08:36:00,25.6,23.6,30.38,ENE,67,0.0,3.0,92,0.00,,,0.00,Wunderground v.1.15,2013-12-08 13:36:00,
2013-12-08 08:38:00,25.6,23.6,30.37,ENE,67,0.0,2.0,92,0.00,,,0.00,Wunderground v.1.15,2013-12-08 13:38:00,
2013-12-08 08:40:00,25.6,23.6,30.37,ENE,67,0.0,2.0,92,0.00,,,0.00,Wunderground v.1.15,2013-12-08 13:40:00,
2013-12-08 08:41:00,25.6,23.6,30.36,NE,56,0.0,2.0,92,0.00,,,0.00,Wunderground v.1.15,2013-12-08 13:41:00,
2013-12-08 08:42:00,25.6,23.6,30.36,ENE,57,0.0,2.0,92,0.00,,,0.00,Wunderground v.1.15,2013-12-08 13:42:00,
2013-12-08 08:43:00,25.6,23.6,30.36,ENE,71,0.0,2.0,92,0.00,,,0.00,Wunderground v.1.15,2013-12-08 13:43:00,
2013-12-08 08:44:00,25.6,23.6,30.36,ENE,71,0.0,2.0,92,0.00,,,0.00,Wunderground v.1.15,2013-12-08 13:44:00,
2013-12-08 08:45:00,25.6,23.6,30.36,ENE,71,0.0,2.0,92,0.00,,,0.00,Wunderground v.1.15,2013-12-08 13:45:00,
2013-12-08 08:47:00,25.6,23.6,30.36,ENE,71,0.0,2.0,92,0.00,,,0.00,Wunderground v.1.15,2013-12-08 13:47:00,
2013-12-08 08:49:00,25.6,23.6,30.35,ENE,71,0.0,2.0,92,0.00,,,0.00,Wunderground v.1.15,2013-12-08 13:49:00,
2013-12-08 08:50:00,25.6,23.6,30.35,ENE,71,0.0,2.0,92,0.00,,,0.00,Wunderground v.1.15,2013-12-08 13:50:00,
2013-12-08 08:51:00,25.6,23.6,30.35,ENE,71,0.0,2.0,92,0.00,,,0.00,Wunderground v.1.15,2013-12-08 13:51:00,
2013-12-08 08:52:00,25.6,23.6,30.35,ENE,76,0.0,2.0,92,0.00,,,0.00,Wunderground v.1.15,2013-12-08 13:52:00,
2013-12-08 08:53:00,25.6,23.6,30.35,ENE,76,0.0,2.0,92,0.00,,,0.00,Wunderground v.1.15,2013-12-08 13:53:00,
2013-12-08 08:57:00,25.6,23.6,30.36,ENE,76,0.0,2.0,92,0.00,,,0.00,Wunderground v.1.15,2013-12-08 13:57:00,
2013-12-08 08:58:00,25.6,23.6,30.36,ENE,76,0.0,2.0,92,0.00,,,0.00,Wunderground v.1.15,2013-12-08 13:58:00,
2013-12-08 08:59:00,25.6,23.6,30.36,ENE,76,0.0,2.0,92,0.00,,,0.00,Wunderground v.1.15,2013-12-08 13:59:00,
2013-12-08 09:00:00,25.6,23.6,30.35,ENE,76,0.0,2.0,92,0.00,,,0.00,Wunderground v.1.15,2013-12-08 14:00:00,
2013-12-08 09:04:00,25.4,23.4,30.35,ENE,69,0.0,2.0,92,0.00,,,0.00,Wunderground v.1.15,2013-12-08 14:04:00,
2013-12-08 09:05:00,25.4,23.4,30.35,ENE,69,0.0,2.0,92,0.00,,,0.00,Wunderground v.1.15,2013-12-08 14:05:00,
2013-12-08 09:06:00,25.4,23.4,30.35,ENE,69,0.0,2.0,92,0.00,,,0.00,Wunderground v.1.15,2013-12-08 14:06:00,
2013-12-08 09:07:00,25.4,23.4,30.36,ENE,69,0.0,2.0,92,0.00,,,0.00,Wunderground v.1.15,2013-12-08 14:07:00,
2013-12-08 09:08:00,25.4,23.4,30.36,ENE,69,0.0,2.0,92,0.00,,,0.00,Wunderground v.1.15,2013-12-08 14:08:00,
2013-12-08 09:10:00,25.4,23.4,30.36,ENE,69,0.0,2.0,92,0.00,,,0.00,Wunderground v.1.15,2013-12-08 14:10:00,
2013-12-08 09:12:00,25.4,23.4,30.35,ENE,69,0.0,2.0,92,0.00,,,0.00,Wunderground v.1.15,2013-12-08 14:12:00,
2013-12-08 09:13:00,25.4,23.4,30.35,ENE,69,0.0,2.0,92,0.00,,,0.00,Wunderground v.1.15,2013-12-08 14:13:00,
2013-12-08 09:15:00,25.4,23.4,30.34,ENE,69,0.0,2.0,92,0.00,,,0.00,Wunderground v.1.15,2013-12-08 14:15:00,
2013-12-08 09:17:00,25.4,23.4,30.34,ENE,72,0.0,2.0,92,0.00,,,0.00,Wunderground v.1.15,2013-12-08 14:17:00,
2013-12-08 09:18:00,25.4,23.4,30.34,East,88,1.0,2.0,92,0.00,,,0.00,Wunderground v.1.15,2013-12-08 14:18:00,
2013-12-08 09:19:00,25.5,23.5,30.34,East,84,1.0,2.0,92,0.00,,,0.00,Wunderground v.1.15,2013-12-08 14:19:00,
2013-12-08 09:20:00,25.5,23.5,30.34,East,84,1.0,2.0,92,0.00,,,0.00,Wunderground v.1.15,2013-12-08 14:20:00,
2013-12-08 09:23:00,25.6,23.6,30.34,East,88,1.0,2.0,92,0.00,,,0.00,Wunderground v.1.15,2013-12-08 14:23:00,
2013-12-08 09:25:00,25.6,23.6,30.34,East,88,1.0,2.0,92,0.00,,,0.00,Wunderground v.1.15,2013-12-08 14:25:00,
2013-12-08 09:26:00,25.6,23.6,30.34,East,88,1.0,2.0,92,0.00,,,0.00,Wunderground v.1.15,2013-12-08 14:26:00,
2013-12-08 09:28:00,25.6,23.6,30.34,East,88,1.0,2.0,92,0.00,,,0.00,Wunderground v.1.15,2013-12-08 14:28:00,
2013-12-08 09:31:00,25.7,23.7,30.33,NE,42,1.0,2.0,92,0.00,,,0.00,Wunderground v.1.15,2013-12-08 14:31:00,
2013-12-08 09:32:00,25.7,23.7,30.33,East,86,1.0,2.0,92,0.00,,,0.00,Wunderground v.1.15,2013-12-08 14:32:00,
2013-12-08 09:33:00,25.7,23.7,30.33,East,84,1.0,2.0,92,0.00,,,0.00,Wunderground v.1.15,2013-12-08 14:33:00,
2013-12-08 09:35:00,25.8,23.8,30.32,East,86,1.0,2.0,92,0.00,,,0.00,Wunderground v.1.15,2013-12-08 14:35:00,
2013-12-08 09:37:00,25.8,23.8,30.32,East,90,1.0,4.0,92,0.00,,,0.00,Wunderground v.1.15,2013-12-08 14:37:00,
2013-12-08 09:38:00,25.9,24.2,30.33,East,84,1.0,4.0,93,0.00,,,0.00,Wunderground v.1.15,2013-12-08 14:38:00,
2013-12-08 09:40:00,25.9,23.9,30.33,ESE,113,2.0,4.0,92,0.00,,,0.00,Wunderground v.1.15,2013-12-08 14:40:00,
2013-12-08 09:41:00,25.9,23.9,30.33,ESE,113,2.0,4.0,92,0.00,,,0.00,Wunderground v.1.15,2013-12-08 14:41:00,
2013-12-08 09:42:00,26.0,24.0,30.33,ESE,113,2.0,4.0,92,0.00,,,0.00,Wunderground v.1.15,2013-12-08 14:42:00,
2013-12-08 09:43:00,26.0,24.0,30.33,East,96,2.0,4.0,92,0.00,,,0.00,Wunderground v.1.15,2013-12-08 14:43:00,
2013-12-08 09:45:00,26.0,24.0,30.33,East,96,2.0,4.0,92,0.00,,,0.00,Wunderground v.1.15,2013-12-08 14:45:00,
2013-12-08 09:46:00,26.1,24.1,30.33,East,97,2.0,4.0,92,0.00,,,0.00,Wunderground v.1.15,2013-12-08 14:46:00,
2013-12-08 09:47:00,26.1,24.1,30.33,ENE,65,2.0,4.0,92,0.00,,,0.00,Wunderground v.1.15,2013-12-08 14:47:00,
2013-12-08 09:50:00,26.1,24.1,30.33,East,84,1.0,4.0,92,0.00,,,0.00,Wunderground v.1.15,2013-12-08 14:50:00,
2013-12-08 09:51:00,26.1,24.1,30.33,East,84,1.0,4.0,92,0.00,,,0.00,Wunderground v.1.15,2013-12-08 14:51:00,
2013-12-08 09:52:00,26.2,24.2,30.33,East,79,1.0,4.0,92,0.00,,,0.00,Wunderground v.1.15,2013-12-08 14:52:00,
2013-12-08 09:53:00,26.2,24.2,30.33,East,79,1.0,4.0,92,0.00,,,0.00,Wunderground v.1.15,2013-12-08 14:53:00,
2013-12-08 09:57:00,26.3,24.3,30.33,East,96,1.0,1.0,92,0.00,,,0.00,Wunderground v.1.15,2013-12-08 14:57:00,
2013-12-08 09:58:00,26.4,24.4,30.33,East,96,1.0,4.0,92,0.00,,,0.00,Wunderground v.1.15,2013-12-08 14:58:00,
2013-12-08 09:59:00,26.4,24.4,30.33,East,96,1.0,4.0,92,0.00,,,0.00,Wunderground v.1.15,2013-12-08 14:59:00,
2013-12-08 10:01:00,26.5,24.5,30.34,East,96,1.0,4.0,92,0.00,,,0.00,Wunderground v.1.15,2013-12-08 15:01:00,
2013-12-08 10:02:00,26.5,24.5,30.33,East,96,1.0,4.0,92,0.00,,,0.00,Wunderground v.1.15,2013-12-08 15:02:00,
2013-12-08 10:05:00,26.6,24.6,30.33,NE,53,0.0,4.0,92,0.00,,,0.00,Wunderground v.1.15,2013-12-08 15:05:00,
2013-12-08 10:06:00,26.6,24.6,30.33,NE,53,0.0,4.0,92,0.00,,,0.00,Wunderground v.1.15,2013-12-08 15:06:00,
2013-12-08 10:12:00,26.6,24.6,30.33,ENE,76,0.0,4.0,92,0.00,,,0.00,Wunderground v.1.15,2013-12-08 15:12:00,
2013-12-08 10:13:00,26.6,24.6,30.33,ENE,76,0.0,4.0,92,0.00,,,0.00,Wunderground v.1.15,2013-12-08 15:13:00,
2013-12-08 10:15:00,26.7,24.7,30.34,ESE,122,0.0,4.0,92,0.00,,,0.00,Wunderground v.1.15,2013-12-08 15:15:00,
2013-12-08 10:16:00,26.7,24.7,30.34,ENE,71,0.0,4.0,92,0.00,,,0.00,Wunderground v.1.15,2013-12-08 15:16:00,
2013-12-08 10:18:00,26.7,24.7,30.33,ENE,58,1.0,4.0,92,0.00,,,0.00,Wunderground v.1.15,2013-12-08 15:18:00,
2013-12-08 10:21:00,26.7,24.7,30.33,East,84,1.0,4.0,92,0.00,,,0.00,Wunderground v.1.15,2013-12-08 15:21:00,
2013-12-08 10:23:00,26.7,24.7,30.33,East,82,1.0,4.0,92,0.00,,,0.00,Wunderground v.1.15,2013-12-08 15:23:00,
2013-12-08 10:25:00,26.7,24.7,30.33,East,81,1.0,4.0,92,0.00,,,0.00,Wunderground v.1.15,2013-12-08 15:25:00,
2013-12-08 10:27:00,26.9,24.9,30.34,East,81,1.0,1.0,92,0.00,,,0.00,Wunderground v.1.15,2013-12-08 15:27:00,
2013-12-08 10:28:00,26.9,24.9,30.34,East,81,1.0,4.0,92,0.00,,,0.00,Wunderground v.1.15,2013-12-08 15:28:00,
2013-12-08 10:30:00,27.0,25.0,30.33,East,85,1.0,4.0,92,0.00,,,0.00,Wunderground v.1.15,2013-12-08 15:30:00,
2013-12-08 10:31:00,27.0,25.0,30.33,ENE,73,1.0,4.0,92,0.00,,,0.00,Wunderground v.1.15,2013-12-08 15:31:00,
2013-12-08 10:32:00,27.1,25.1,30.33,ENE,73,1.0,4.0,92,0.00,,,0.00,Wunderground v.1.15,2013-12-08 15:32:00,
2013-12-08 10:35:00,27.1,25.1,30.33,ENE,76,0.0,4.0,92,0.00,,,0.00,Wunderground v.1.15,2013-12-08 15:35:00,
2013-12-08 10:36:00,27.1,25.1,30.33,ENE,76,0.0,4.0,92,0.00,,,0.00,Wunderground v.1.15,2013-12-08 15:36:00,
2013-12-08 10:37:00,27.1,25.1,30.33,ENE,76,0.0,3.0,92,0.00,,,0.00,Wunderground v.1.15,2013-12-08 15:37:00,
2013-12-08 10:39:00,27.1,25.1,30.33,ENE,76,0.0,3.0,92,0.00,,,0.00,Wunderground v.1.15,2013-12-08 15:39:00,
2013-12-08 10:42:00,27.2,25.2,30.32,ESE,107,0.0,3.0,92,0.00,,,0.00,Wunderground v.1.15,2013-12-08 15:42:00,
2013-12-08 10:43:00,27.2,25.2,30.32,East,97,0.0,3.0,92,0.00,,,0.00,Wunderground v.1.15,2013-12-08 15:43:00,
2013-12-08 10:45:00,27.3,25.3,30.32,ESE,107,0.0,3.0,92,0.00,,,0.00,Wunderground v.1.15,2013-12-08 15:45:00,
2013-12-08 10:46:00,27.4,25.4,30.32,ENE,67,0.0,3.0,92,0.00,,,0.00,Wunderground v.1.15,2013-12-08 15:46:00,
2013-12-08 10:47:00,27.4,25.4,30.32,East,81,1.0,3.0,92,0.00,,,0.00,Wunderground v.1.15,2013-12-08 15:47:00,
2013-12-08 10:49:00,27.4,25.4,30.31,ENE,65,1.0,3.0,92,0.00,,,0.00,Wunderground v.1.15,2013-12-08 15:49:00,
2013-12-08 10:50:00,27.4,25.4,30.31,ENE,69,1.0,3.0,92,0.00,,,0.00,Wunderground v.1.15,2013-12-08 15:50:00,
2013-12-08 10:51:00,27.4,25.4,30.32,East,94,1.0,3.0,92,0.00,,,0.00,Wunderground v.1.15,2013-12-08 15:51:00,
2013-12-08 10:52:00,27.4,25.4,30.32,East,92,1.0,3.0,92,0.00,,,0.00,Wunderground v.1.15,2013-12-08 15:52:00,
2013-12-08 10:53:00,27.5,25.5,30.32,SE,128,1.0,3.0,92,0.00,,,0.00,Wunderground v.1.15,2013-12-08 15:53:00,
2013-12-08 10:55:00,27.5,25.5,30.32,NE,49,2.0,3.0,92,0.00,,,0.00,Wunderground v.1.15,2013-12-08 15:55:00,
2013-12-08 10:56:00,27.5,25.5,30.32,East,83,2.0,3.0,92,0.00,,,0.00,Wunderground v.1.15,2013-12-08 15:56:00,
2013-12-08 10:58:00,27.5,25.2,30.32,East,90,2.0,3.0,91,0.00,,,0.00,Wunderground v.1.15,2013-12-08 15:58:00,
2013-12-08 11:00:00,27.5,25.5,30.31,East,101,2.0,3.0,92,0.00,,,0.00,Wunderground v.1.15,2013-12-08 16:00:00,
2013-12-08 11:01:00,27.5,25.2,30.31,ESE,105,2.0,3.0,91,0.00,,,0.00,Wunderground v.1.15,2013-12-08 16:01:00,
2013-12-08 11:03:00,27.5,25.2,30.31,NNE,31,2.0,3.0,91,0.00,,,0.00,Wunderground v.1.15,2013-12-08 16:03:00,
2013-12-08 11:06:00,27.5,25.5,30.31,East,84,1.0,3.0,92,0.00,,,0.00,Wunderground v.1.15,2013-12-08 16:06:00,
2013-12-08 11:08:00,27.6,25.6,30.31,East,82,1.0,3.0,92,0.00,,,0.00,Wunderground v.1.15,2013-12-08 16:08:00,
2013-12-08 11:09:00,27.6,25.6,30.31,East,82,1.0,3.0,92,0.00,,,0.00,Wunderground v.1.15,2013-12-08 16:09:00,
2013-12-08 11:10:00,27.6,25.6,30.31,East,80,1.0,3.0,92,0.00,,,0.00,Wunderground v.1.15,2013-12-08 16:10:00,
2013-12-08 11:12:00,27.7,25.7,30.30,East,97,1.0,3.0,92,0.00,,,0.00,Wunderground v.1.15,2013-12-08 16:12:00,
2013-12-08 11:13:00,27.7,25.7,30.30,East,85,1.0,3.0,92,0.00,,,0.00,Wunderground v.1.15,2013-12-08 16:13:00,
2013-12-08 11:14:00,27.7,25.7,30.30,ENE,62,1.0,3.0,92,0.00,,,0.00,Wunderground v.1.15,2013-12-08 16:14:00,
2013-12-08 11:18:00,27.8,25.8,30.31,ENE,68,1.0,3.0,92,0.00,,,0.00,Wunderground v.1.15,2013-12-08 16:18:00,
2013-12-08 11:19:00,27.8,25.8,30.30,ESE,107,1.0,3.0,92,0.00,,,0.00,Wunderground v.1.15,2013-12-08 16:19:00,
2013-12-08 11:21:00,27.8,25.8,30.30,ENE,74,1.0,3.0,92,0.00,,,0.00,Wunderground v.1.15,2013-12-08 16:21:00,
2013-12-08 11:23:00,27.8,25.5,30.31,ENE,74,1.0,3.0,91,0.00,,,0.00,Wunderground v.1.15,2013-12-08 16:23:00,
2013-12-08 11:24:00,27.9,25.9,30.30,ENE,74,1.0,3.0,92,0.00,,,0.00,Wunderground v.1.15,2013-12-08 16:24:00,
2013-12-08 11:25:00,27.9,25.9,30.30,ENE,74,1.0,3.0,92,0.00,,,0.00,Wunderground v.1.15,2013-12-08 16:25:00,
2013-12-08 11:26:00,27.9,25.9,30.30,ENE,74,1.0,3.0,92,0.00,,,0.00,Wunderground v.1.15,2013-12-08 16:26:00,
2013-12-08 11:30:00,27.9,25.9,30.30,ENE,77,0.0,3.0,92,0.00,,,0.00,Wunderground v.1.15,2013-12-08 16:30:00,
2013-12-08 11:31:00,28.0,26.0,30.30,ENE,77,0.0,3.0,92,0.00,,,0.00,Wunderground v.1.15,2013-12-08 16:31:00,
2013-12-08 11:33:00,28.0,26.0,30.30,ENE,71,0.0,3.0,92,0.00,,,0.00,Wunderground v.1.15,2013-12-08 16:33:00,
2013-12-08 11:34:00,28.0,26.0,30.30,ENE,71,1.0,3.0,92,0.00,,,0.00,Wunderground v.1.15,2013-12-08 16:34:00,
2013-12-08 11:38:00,28.1,26.1,30.29,East,81,1.0,3.0,92,0.00,,,0.00,Wunderground v.1.15,2013-12-08 16:38:00,
2013-12-08 11:39:00,28.1,26.1,30.29,East,81,1.0,3.0,92,0.00,,,0.00,Wunderground v.1.15,2013-12-08 16:39:00,
2013-12-08 11:40:00,28.1,26.1,30.30,East,81,1.0,3.0,92,0.00,,,0.00,Wunderground v.1.15,2013-12-08 16:40:00,
2013-12-08 11:42:00,28.1,26.1,30.29,East,81,1.0,3.0,92,0.00,,,0.00,Wunderground v.1.15,2013-12-08 16:42:00,
2013-12-08 11:45:00,28.2,26.2,30.29,East,81,0.0,3.0,92,0.00,,,0.00,Wunderground v.1.15,2013-12-08 16:45:00,
2013-12-08 11:46:00,28.3,26.3,30.29,East,81,0.0,3.0,92,0.00,,,0.00,Wunderground v.1.15,2013-12-08 16:46:00,
2013-12-08 11:47:00,28.3,26.3,30.29,East,81,0.0,3.0,92,0.00,,,0.00,Wunderground v.1.15,2013-12-08 16:47:00,
2013-12-08 11:48:00,28.3,26.3,30.28,East,81,0.0,3.0,92,0.00,,,0.00,Wunderground v.1.15,2013-12-08 16:48:00,
2013-12-08 11:51:00,28.3,26.3,30.28,East,97,0.0,3.0,92,0.00,,,0.00,Wunderground v.1.15,2013-12-08 16:51:00,
2013-12-08 11:53:00,28.3,26.3,30.28,East,97,0.0,3.0,92,0.00,,,0.00,Wunderground v.1.15,2013-12-08 16:53:00,
2013-12-08 11:55:00,28.4,26.4,30.27,ESE,104,0.0,3.0,92,0.00,,,0.00,Wunderground v.1.15,2013-12-08 16:55:00,
2013-12-08 11:56:00,28.4,26.4,30.28,ENE,66,0.0,3.0,92,0.00,,,0.00,Wunderground v.1.15,2013-12-08 16:56:00,
2013-12-08 11:57:00,28.5,26.5,30.27,East,87,0.0,3.0,92,0.00,,,0.00,Wunderground v.1.15,2013-12-08 16:57:00,
2013-12-08 11:58:00,28.5,26.5,30.28,ESE,103,0.0,3.0,92,0.00,,,0.00,Wunderground v.1.15,2013-12-08 16:58:00,
2013-12-08 12:00:00,28.5,26.5,30.28,East,85,1.0,3.0,92,0.00,,,0.00,Wunderground v.1.15,2013-12-08 17:00:00,
2013-12-08 12:03:00,28.6,26.6,30.28,ENE,70,1.0,3.0,92,0.00,,,0.00,Wunderground v.1.15,2013-12-08 17:03:00,
2013-12-08 12:06:00,28.6,26.6,30.27,East,84,1.0,3.0,92,0.00,,,0.00,Wunderground v.1.15,2013-12-08 17:06:00,
2013-12-08 12:08:00,28.7,26.7,30.27,East,84,0.0,3.0,92,0.00,,,0.00,Wunderground v.1.15,2013-12-08 17:08:00,
2013-12-08 12:09:00,28.7,26.7,30.27,East,84,0.0,3.0,92,0.00,,,0.00,Wunderground v.1.15,2013-12-08 17:09:00,
2013-12-08 12:12:00,28.7,26.7,30.26,East,84,0.0,3.0,92,0.00,,,0.00,Wunderground v.1.15,2013-12-08 17:12:00,
2013-12-08 12:13:00,28.7,26.7,30.26,East,84,0.0,3.0,92,0.00,,,0.00,Wunderground v.1.15,2013-12-08 17:13:00,
2013-12-08 12:14:00,28.8,26.8,30.26,ENE,74,0.0,3.0,92,0.00,,,0.00,Wunderground v.1.15,2013-12-08 17:14:00,
2013-12-08 12:17:00,28.8,26.8,30.26,ENE,57,0.0,3.0,92,0.00,,,0.00,Wunderground v.1.15,2013-12-08 17:17:00,
2013-12-08 12:19:00,28.8,26.8,30.26,ENE,61,0.0,3.0,92,0.00,,,0.00,Wunderground v.1.15,2013-12-08 17:19:00,
2013-12-08 12:22:00,28.8,26.8,30.26,ENE,60,1.0,3.0,92,0.00,,,0.00,Wunderground v.1.15,2013-12-08 17:22:00,
2013-12-08 12:24:00,28.8,27.0,30.26,ENE,60,0.0,3.0,93,0.00,,,0.00,Wunderground v.1.15,2013-12-08 17:24:00,
2013-12-08 12:25:00,28.8,26.8,30.25,East,101,0.0,3.0,92,0.00,,,0.00,Wunderground v.1.15,2013-12-08 17:25:00,
2013-12-08 12:27:00,28.8,27.0,30.25,East,101,1.0,1.0,93,0.00,,,0.00,Wunderground v.1.15,2013-12-08 17:27:00,
2013-12-08 12:28:00,28.8,27.0,30.25,East,99,1.0,2.0,93,0.00,,,0.00,Wunderground v.1.15,2013-12-08 17:28:00,
2013-12-08 12:32:00,28.8,27.0,30.25,East,98,1.0,3.0,93,0.00,,,0.00,Wunderground v.1.15,2013-12-08 17:32:00,
2013-12-08 12:33:00,28.8,27.0,30.25,East,98,1.0,3.0,93,0.00,,,0.00,Wunderground v.1.15,2013-12-08 17:33:00,
2013-12-08 12:35:00,28.8,27.0,30.25,East,81,1.0,3.0,93,0.00,,,0.00,Wunderground v.1.15,2013-12-08 17:35:00,
2013-12-08 12:39:00,28.7,26.9,30.24,East,85,0.0,3.0,93,0.00,,,0.00,Wunderground v.1.15,2013-12-08 17:39:00,
2013-12-08 12:40:00,28.7,26.9,30.24,East,85,0.0,3.0,93,0.00,,,0.00,Wunderground v.1.15,2013-12-08 17:40:00,
2013-12-08 12:42:00,28.7,26.9,30.25,East,86,0.0,3.0,93,0.00,,,0.00,Wunderground v.1.15,2013-12-08 17:42:00,
2013-12-08 12:43:00,28.8,27.0,30.25,East,86,0.0,3.0,93,0.00,,,0.00,Wunderground v.1.15,2013-12-08 17:43:00,
2013-12-08 12:45:00,28.8,27.0,30.25,East,86,0.0,3.0,93,0.00,,,0.00,Wunderground v.1.15,2013-12-08 17:45:00,
2013-12-08 12:47:00,28.9,27.1,30.24,East,86,0.0,3.0,93,0.00,,,0.00,Wunderground v.1.15,2013-12-08 17:47:00,
2013-12-08 12:48:00,28.9,27.1,30.24,East,86,0.0,3.0,93,0.00,,,0.00,Wunderground v.1.15,2013-12-08 17:48:00,
2013-12-08 12:50:00,29.1,27.3,30.24,East,86,0.0,3.0,93,0.00,,,0.00,Wunderground v.1.15,2013-12-08 17:50:00,
2013-12-08 12:52:00,29.2,27.4,30.24,ESE,107,0.0,3.0,93,0.00,,,0.00,Wunderground v.1.15,2013-12-08 17:52:00,
2013-12-08 12:55:00,29.2,27.4,30.24,East,93,0.0,3.0,93,0.00,,,0.00,Wunderground v.1.15,2013-12-08 17:55:00,
2013-12-08 12:56:00,29.2,27.4,30.24,East,93,0.0,3.0,93,0.00,,,0.00,Wunderground v.1.15,2013-12-08 17:56:00,
2013-12-08 12:58:00,29.3,27.5,30.24,East,93,0.0,3.0,93,0.00,,,0.00,Wunderground v.1.15,2013-12-08 17:58:00,
2013-12-08 13:00:00,29.4,27.6,30.24,East,98,1.0,3.0,93,0.00,,,0.00,Wunderground v.1.15,2013-12-08 18:00:00,
2013-12-08 13:04:00,29.4,27.6,30.24,East,98,0.0,3.0,93,0.00,,,0.00,Wunderground v.1.15,2013-12-08 18:04:00,
2013-12-08 13:06:00,29.4,27.6,30.24,East,98,0.0,3.0,93,0.00,,,0.00,Wunderground v.1.15,2013-12-08 18:06:00,
2013-12-08 13:09:00,29.4,27.6,30.24,East,98,0.0,3.0,93,0.00,,,0.00,Wunderground v.1.15,2013-12-08 18:09:00,
2013-12-08 13:11:00,29.5,27.7,30.23,East,98,0.0,3.0,93,0.00,,,0.00,Wunderground v.1.15,2013-12-08 18:11:00,
2013-12-08 13:13:00,29.5,27.7,30.23,East,98,0.0,3.0,93,0.00,,,0.00,Wunderground v.1.15,2013-12-08 18:13:00,
2013-12-08 13:16:00,29.5,27.7,30.23,East,96,0.0,3.0,93,0.00,,,0.00,Wunderground v.1.15,2013-12-08 18:16:00,
2013-12-08 13:17:00,29.6,27.8,30.22,East,96,0.0,3.0,93,0.00,,,0.00,Wunderground v.1.15,2013-12-08 18:17:00,
2013-12-08 13:21:00,29.7,27.9,30.22,East,96,0.0,3.0,93,0.00,,,0.00,Wunderground v.1.15,2013-12-08 18:21:00,
2013-12-08 13:22:00,29.7,27.9,30.22,East,96,0.0,3.0,93,0.00,,,0.00,Wunderground v.1.15,2013-12-08 18:22:00,
2013-12-08 13:25:00,29.8,28.0,30.21,East,96,0.0,3.0,93,0.00,,,0.00,Wunderground v.1.15,2013-12-08 18:25:00,
2013-12-08 13:27:00,29.8,28.0,30.21,ESE,109,0.0,3.0,93,0.00,,,0.00,Wunderground v.1.15,2013-12-08 18:27:00,
2013-12-08 13:28:00,29.8,28.0,30.21,ESE,109,0.0,3.0,93,0.00,,,0.00,Wunderground v.1.15,2013-12-08 18:28:00,
2013-12-08 13:29:00,29.8,28.0,30.21,ESE,109,0.0,3.0,93,0.00,,,0.00,Wunderground v.1.15,2013-12-08 18:29:00,
2013-12-08 13:31:00,29.8,28.0,30.21,SE,145,0.0,3.0,93,0.00,,,0.00,Wunderground v.1.15,2013-12-08 18:31:00,
2013-12-08 13:33:00,29.8,28.0,30.21,ESE,107,0.0,3.0,93,0.00,,,0.00,Wunderground v.1.15,2013-12-08 18:33:00,
2013-12-08 13:34:00,29.9,28.1,30.21,ESE,107,1.0,3.0,93,0.00,,,0.00,Wunderground v.1.15,2013-12-08 18:34:00,
2013-12-08 13:35:00,29.9,28.1,30.21,ESE,107,1.0,3.0,93,0.00,,,0.00,Wunderground v.1.15,2013-12-08 18:35:00,
2013-12-08 13:36:00,29.9,28.1,30.21,ESE,107,1.0,3.0,93,0.00,,,0.00,Wunderground v.1.15,2013-12-08 18:36:00,
2013-12-08 13:37:00,29.9,28.1,30.21,ESE,107,1.0,1.0,93,0.00,,,0.00,Wunderground v.1.15,2013-12-08 18:37:00,
2013-12-08 13:39:00,29.9,28.1,30.21,ESE,114,1.0,2.0,93,0.00,,,0.00,Wunderground v.1.15,2013-12-08 18:39:00,
2013-12-08 13:42:00,29.9,28.1,30.21,East,98,1.0,2.0,93,0.00,,,0.00,Wunderground v.1.15,2013-12-08 18:42:00,
2013-12-08 13:43:00,29.9,28.1,30.21,East,98,1.0,2.0,93,0.00,,,0.00,Wunderground v.1.15,2013-12-08 18:43:00,
2013-12-08 13:44:00,29.9,28.1,30.20,East,98,1.0,2.0,93,0.00,,,0.00,Wunderground v.1.15,2013-12-08 18:44:00,
2013-12-08 13:49:00,30.0,28.2,30.20,ENE,73,1.0,2.0,93,0.00,,,0.00,Wunderground v.1.15,2013-12-08 18:49:00,
2013-12-08 13:50:00,30.0,28.2,30.20,ENE,76,1.0,2.0,93,0.00,,,0.00,Wunderground v.1.15,2013-12-08 18:50:00,
2013-12-08 13:51:00,30.0,28.2,30.21,ENE,76,1.0,2.0,93,0.00,,,0.00,Wunderground v.1.15,2013-12-08 18:51:00,
2013-12-08 13:52:00,30.0,28.2,30.21,ENE,78,1.0,2.0,93,0.00,,,0.00,Wunderground v.1.15,2013-12-08 18:52:00,
2013-12-08 13:56:00,30.0,28.2,30.21,East,82,1.0,2.0,93,0.00,,,0.00,Wunderground v.1.15,2013-12-08 18:56:00,
2013-12-08 13:58:00,29.9,28.1,30.20,East,82,0.0,2.0,93,0.00,,,0.00,Wunderground v.1.15,2013-12-08 18:58:00,
2013-12-08 13:59:00,29.9,28.1,30.21,East,82,0.0,2.0,93,0.00,,,0.00,Wunderground v.1.15,2013-12-08 18:59:00,
2013-12-08 14:00:00,30.0,28.2,30.20,East,82,0.0,2.0,93,0.00,,,0.00,Wunderground v.1.15,2013-12-08 19:00:00,
2013-12-08 14:02:00,30.0,28.2,30.20,East,82,0.0,2.0,93,0.00,,,0.00,Wunderground v.1.15,2013-12-08 19:02:00,
2013-12-08 14:05:00,30.1,28.3,30.20,East,100,0.0,2.0,93,0.00,,,0.00,Wunderground v.1.15,2013-12-08 19:05:00,
2013-12-08 14:06:00,30.1,28.3,30.19,East,100,0.0,2.0,93,0.00,,,0.00,Wunderground v.1.15,2013-12-08 19:06:00,
2013-12-08 14:09:00,30.1,28.3,30.20,East,100,0.0,2.0,93,0.00,,,0.00,Wunderground v.1.15,2013-12-08 19:09:00,
2013-12-08 14:10:00,30.1,28.3,30.19,East,100,0.0,2.0,93,0.00,,,0.00,Wunderground v.1.15,2013-12-08 19:10:00,
2013-12-08 14:11:00,30.1,28.3,30.19,ENE,69,0.0,2.0,93,0.00,,,0.00,Wunderground v.1.15,2013-12-08 19:11:00,
2013-12-08 14:12:00,30.1,28.3,30.19,ENE,69,0.0,2.0,93,0.00,,,0.00,Wunderground v.1.15,2013-12-08 19:12:00,
2013-12-08 14:13:00,30.2,28.4,30.19,East,80,0.0,2.0,93,0.00,,,0.00,Wunderground v.1.15,2013-12-08 19:13:00,
2013-12-08 14:14:00,30.2,28.4,30.19,East,80,0.0,2.0,93,0.00,,,0.00,Wunderground v.1.15,2013-12-08 19:14:00,
2013-12-08 14:15:00,30.1,28.3,30.19,East,80,0.0,2.0,93,0.00,,,0.00,Wunderground v.1.15,2013-12-08 19:15:00,
2013-12-08 14:18:00,30.1,28.3,30.19,East,80,0.0,2.0,93,0.00,,,0.00,Wunderground v.1.15,2013-12-08 19:18:00,
2013-12-08 14:19:00,30.1,28.3,30.19,East,80,0.0,2.0,93,0.00,,,0.00,Wunderground v.1.15,2013-12-08 19:19:00,
2013-12-08 14:20:00,30.1,28.3,30.19,East,80,0.0,2.0,93,0.00,,,0.00,Wunderground v.1.15,2013-12-08 19:20:00,
2013-12-08 14:22:00,30.2,28.4,30.19,East,80,0.0,2.0,93,0.00,,,0.00,Wunderground v.1.15,2013-12-08 19:22:00,
2013-12-08 14:25:00,30.3,28.5,30.18,East,80,0.0,2.0,93,0.00,,,0.00,Wunderground v.1.15,2013-12-08 19:25:00,
2013-12-08 14:27:00,30.3,28.5,30.18,East,80,0.0,2.0,93,0.00,,,0.00,Wunderground v.1.15,2013-12-08 19:27:00,
2013-12-08 14:29:00,30.3,28.5,30.18,East,80,0.0,2.0,93,0.00,,,0.00,Wunderground v.1.15,2013-12-08 19:29:00,
2013-12-08 14:30:00,30.3,28.5,30.18,East,80,0.0,2.0,93,0.00,,,0.00,Wunderground v.1.15,2013-12-08 19:30:00,
2013-12-08 14:31:00,30.3,28.5,30.18,East,80,0.0,2.0,93,0.00,,,0.00,Wunderground v.1.15,2013-12-08 19:31:00,
2013-12-08 14:34:00,30.3,28.5,30.18,East,98,0.0,2.0,93,0.00,,,0.00,Wunderground v.1.15,2013-12-08 19:34:00,
2013-12-08 14:37:00,30.3,28.5,30.18,ESE,107,0.0,2.0,93,0.00,,,0.00,Wunderground v.1.15,2013-12-08 19:37:00,
2013-12-08 14:39:00,30.4,28.6,30.18,East,100,0.0,2.0,93,0.00,,,0.00,Wunderground v.1.15,2013-12-08 19:39:00,
2013-12-08 14:40:00,30.3,28.5,30.18,East,99,1.0,2.0,93,0.00,,,0.00,Wunderground v.1.15,2013-12-08 19:40:00,
2013-12-08 14:41:00,30.3,28.5,30.18,East,99,1.0,2.0,93,0.00,,,0.00,Wunderground v.1.15,2013-12-08 19:41:00,
2013-12-08 14:42:00,30.3,28.5,30.18,East,100,1.0,2.0,93,0.00,,,0.00,Wunderground v.1.15,2013-12-08 19:42:00,
2013-12-08 14:44:00,30.3,28.5,30.18,SE,126,0.0,2.0,93,0.00,,,0.00,Wunderground v.1.15,2013-12-08 19:44:00,
2013-12-08 14:45:00,30.2,28.4,30.18,SE,132,1.0,2.0,93,0.00,,,0.00,Wunderground v.1.15,2013-12-08 19:45:00,
2013-12-08 14:49:00,30.2,28.4,30.18,ESE,111,0.0,2.0,93,0.00,,,0.00,Wunderground v.1.15,2013-12-08 19:49:00,
2013-12-08 14:50:00,30.3,28.5,30.18,ESE,111,0.0,2.0,93,0.00,,,0.00,Wunderground v.1.15,2013-12-08 19:50:00,
2013-12-08 14:51:00,30.3,28.5,30.17,ESE,111,0.0,2.0,93,0.00,,,0.00,Wunderground v.1.15,2013-12-08 19:51:00,
2013-12-08 14:52:00,30.3,28.5,30.17,ESE,123,0.0,2.0,93,0.00,,,0.00,Wunderground v.1.15,2013-12-08 19:52:00,
2013-12-08 14:53:00,30.3,28.5,30.17,ESE,123,0.0,2.0,93,0.00,,,0.00,Wunderground v.1.15,2013-12-08 19:53:00,
2013-12-08 14:54:00,30.3,28.5,30.18,ESE,123,0.0,2.0,93,0.00,,,0.00,Wunderground v.1.15,2013-12-08 19:54:00,
2013-12-08 14:55:00,30.2,28.4,30.18,ESE,123,0.0,2.0,93,0.00,,,0.00,Wunderground v.1.15,2013-12-08 19:55:00,
2013-12-08 14:58:00,30.2,28.4,30.18,ENE,74,0.0,2.0,93,0.00,,,0.00,Wunderground v.1.15,2013-12-08 19:58:00,
2013-12-08 14:59:00,30.2,28.4,30.18,ENE,74,0.0,2.0,93,0.00,,,0.00,Wunderground v.1.15,2013-12-08 19:59:00,
2013-12-08 15:00:00,30.2,28.4,30.18,ENE,74,0.0,2.0,93,0.00,,,0.00,Wunderground v.1.15,2013-12-08 20:00:00,
2013-12-08 15:01:00,30.2,28.4,30.18,ENE,74,0.0,2.0,93,0.00,,,0.00,Wunderground v.1.15,2013-12-08 20:01:00,
2013-12-08 15:03:00,30.2,28.4,30.18,ENE,74,0.0,2.0,93,0.00,,,0.00,Wunderground v.1.15,2013-12-08 20:03:00,
2013-12-08 15:04:00,30.2,28.4,30.18,ENE,74,0.0,2.0,93,0.00,,,0.00,Wunderground v.1.15,2013-12-08 20:04:00,
2013-12-08 15:05:00,30.2,28.4,30.18,ENE,74,0.0,2.0,93,0.00,,,0.00,Wunderground v.1.15,2013-12-08 20:05:00,
2013-12-08 15:07:00,30.2,28.4,30.17,ENE,74,0.0,2.0,93,0.00,,,0.00,Wunderground v.1.15,2013-12-08 20:07:00,
2013-12-08 15:08:00,30.2,28.4,30.17,ENE,74,0.0,2.0,93,0.00,,,0.00,Wunderground v.1.15,2013-12-08 20:08:00,
2013-12-08 15:09:00,30.3,28.5,30.17,ENE,74,0.0,2.0,93,0.00,,,0.00,Wunderground v.1.15,2013-12-08 20:09:00,
2013-12-08 15:12:00,30.3,28.5,30.17,East,100,0.0,2.0,93,0.00,,,0.00,Wunderground v.1.15,2013-12-08 20:12:00,
2013-12-08 15:14:00,30.3,28.5,30.17,East,100,0.0,2.0,93,0.00,,,0.00,Wunderground v.1.15,2013-12-08 20:14:00,
2013-12-08 15:15:00,30.3,28.8,30.17,East,100,0.0,2.0,94,0.00,,,0.00,Wunderground v.1.15,2013-12-08 20:15:00,
2013-12-08 15:16:00,30.3,28.8,30.17,East,100,0.0,2.0,94,0.00,,,0.00,Wunderground v.1.15,2013-12-08 20:16:00,
2013-12-08 15:19:00,30.3,28.8,30.17,East,100,0.0,2.0,94,0.00,,,0.00,Wunderground v.1.15,2013-12-08 20:19:00,
2013-12-08 15:22:00,30.3,28.8,30.17,East,100,0.0,2.0,94,0.00,,,0.00,Wunderground v.1.15,2013-12-08 20:22:00,
2013-12-08 15:23:00,30.3,28.8,30.17,East,100,0.0,2.0,94,0.00,,,0.00,Wunderground v.1.15,2013-12-08 20:23:00,
2013-12-08 15:25:00,30.3,28.8,30.17,East,100,0.0,2.0,94,0.00,,,0.00,Wunderground v.1.15,2013-12-08 20:25:00,
2013-12-08 15:27:00,30.3,28.8,30.17,East,99,0.0,2.0,94,0.00,,,0.00,Wunderground v.1.15,2013-12-08 20:27:00,
2013-12-08 15:28:00,30.3,28.8,30.17,East,99,0.0,2.0,94,0.00,,,0.00,Wunderground v.1.15,2013-12-08 20:28:00,
2013-12-08 15:31:00,30.3,28.8,30.17,East,100,0.0,2.0,94,0.00,,,0.00,Wunderground v.1.15,2013-12-08 20:31:00,
2013-12-08 15:32:00,30.3,28.8,30.17,East,99,0.0,2.0,94,0.00,,,0.00,Wunderground v.1.15,2013-12-08 20:32:00,
2013-12-08 15:33:00,30.4,28.9,30.17,East,99,0.0,2.0,94,0.00,,,0.00,Wunderground v.1.15,2013-12-08 20:33:00,
2013-12-08 15:36:00,30.5,29.0,30.16,East,99,0.0,2.0,94,0.00,,,0.00,Wunderground v.1.15,2013-12-08 20:36:00,
2013-12-08 15:37:00,30.5,29.0,30.16,East,99,0.0,1.0,94,0.00,,,0.00,Wunderground v.1.15,2013-12-08 20:37:00,
2013-12-08 15:38:00,30.5,29.0,30.16,East,100,0.0,1.0,94,0.00,,,0.00,Wunderground v.1.15,2013-12-08 20:38:00,
2013-12-08 15:40:00,30.5,29.0,30.16,East,99,0.0,1.0,94,0.00,,,0.00,Wunderground v.1.15,2013-12-08 20:40:00,
2013-12-08 15:43:00,30.5,29.0,30.16,East,99,0.0,1.0,94,0.00,,,0.00,Wunderground v.1.15,2013-12-08 20:43:00,
2013-12-08 15:47:00,30.5,29.0,30.15,ESE,113,0.0,1.0,94,0.00,,,0.00,Wunderground v.1.15,2013-12-08 20:47:00,
2013-12-08 15:48:00,30.5,29.0,30.15,ESE,113,0.0,1.0,94,0.00,,,0.00,Wunderground v.1.15,2013-12-08 20:48:00,
2013-12-08 15:49:00,30.5,29.0,30.15,ESE,113,0.0,1.0,94,0.00,,,0.00,Wunderground v.1.15,2013-12-08 20:49:00,
2013-12-08 15:50:00,30.5,29.0,30.15,ESE,113,0.0,1.0,94,0.00,,,0.00,Wunderground v.1.15,2013-12-08 20:50:00,
2013-12-08 15:51:00,30.6,29.1,30.15,ESE,113,0.0,1.0,94,0.00,,,0.00,Wunderground v.1.15,2013-12-08 20:51:00,
2013-12-08 15:54:00,30.6,29.1,30.15,ESE,113,0.0,1.0,94,0.00,,,0.00,Wunderground v.1.15,2013-12-08 20:54:00,
2013-12-08 15:57:00,30.6,29.1,30.15,ESE,113,0.0,1.0,94,0.00,,,0.00,Wunderground v.1.15,2013-12-08 20:57:00,
2013-12-08 15:59:00,30.6,29.1,30.15,ESE,113,0.0,1.0,94,0.00,,,0.00,Wunderground v.1.15,2013-12-08 20:59:00,
2013-12-08 16:00:00,30.7,29.2,30.15,ESE,113,0.0,1.0,94,0.00,,,0.00,Wunderground v.1.15,2013-12-08 21:00:00,
2013-12-08 16:02:00,30.7,29.2,30.14,ESE,113,0.0,1.0,94,0.00,,,0.00,Wunderground v.1.15,2013-12-08 21:02:00,
2013-12-08 16:04:00,30.7,29.2,30.15,ESE,113,0.0,1.0,94,0.00,,,0.00,Wunderground v.1.15,2013-12-08 21:04:00,
2013-12-08 16:05:00,30.7,29.2,30.15,ESE,113,0.0,1.0,94,0.00,,,0.00,Wunderground v.1.15,2013-12-08 21:05:00,
2013-12-08 16:09:00,30.7,29.2,30.15,ESE,113,0.0,1.0,94,0.00,,,0.00,Wunderground v.1.15,2013-12-08 21:09:00,
2013-12-08 16:10:00,30.7,29.2,30.15,ESE,113,0.0,1.0,94,0.00,,,0.00,Wunderground v.1.15,2013-12-08 21:10:00,
2013-12-08 16:11:00,30.7,29.2,30.15,ESE,113,0.0,1.0,94,0.00,,,0.00,Wunderground v.1.15,2013-12-08 21:11:00,
2013-12-08 16:12:00,30.8,29.3,30.15,ESE,113,0.0,1.0,94,0.00,,,0.00,Wunderground v.1.15,2013-12-08 21:12:00,
2013-12-08 16:15:00,30.8,29.3,30.15,ESE,113,0.0,1.0,94,0.00,,,0.00,Wunderground v.1.15,2013-12-08 21:15:00,
2013-12-08 16:16:00,30.8,29.3,30.15,ESE,113,0.0,1.0,94,0.00,,,0.00,Wunderground v.1.15,2013-12-08 21:16:00,
2013-12-08 16:17:00,30.8,29.3,30.15,ESE,113,0.0,1.0,94,0.00,,,0.00,Wunderground v.1.15,2013-12-08 21:17:00,
2013-12-08 16:19:00,30.8,29.3,30.15,ESE,113,0.0,1.0,94,0.00,,,0.00,Wunderground v.1.15,2013-12-08 21:19:00,
2013-12-08 16:20:00,30.8,29.3,30.15,ESE,113,0.0,1.0,94,0.00,,,0.00,Wunderground v.1.15,2013-12-08 21:20:00,
2013-12-08 16:21:00,30.8,29.3,30.15,ESE,113,0.0,1.0,94,0.00,,,0.00,Wunderground v.1.15,2013-12-08 21:21:00,
2013-12-08 16:23:00,30.8,29.3,30.15,ESE,113,0.0,1.0,94,0.00,,,0.00,Wunderground v.1.15,2013-12-08 21:23:00,
2013-12-08 16:24:00,30.8,29.3,30.15,ESE,113,0.0,1.0,94,0.00,,,0.00,Wunderground v.1.15,2013-12-08 21:24:00,
2013-12-08 16:27:00,30.9,29.4,30.15,ESE,113,0.0,1.0,94,0.00,,,0.00,Wunderground v.1.15,2013-12-08 21:27:00,
2013-12-08 16:29:00,31.0,29.5,30.15,ESE,113,0.0,1.0,94,0.00,,,0.00,Wunderground v.1.15,2013-12-08 21:29:00,
2013-12-08 16:30:00,31.0,29.5,30.15,ESE,113,0.0,1.0,94,0.00,,,0.00,Wunderground v.1.15,2013-12-08 21:30:00,
2013-12-08 16:32:00,31.0,29.5,30.15,ESE,113,0.0,1.0,94,0.00,,,0.00,Wunderground v.1.15,2013-12-08 21:32:00,
2013-12-08 16:33:00,31.0,29.5,30.15,ESE,113,0.0,1.0,94,0.00,,,0.00,Wunderground v.1.15,2013-12-08 21:33:00,
2013-12-08 16:36:00,31.1,29.6,30.15,ESE,113,0.0,1.0,94,0.00,,,0.00,Wunderground v.1.15,2013-12-08 21:36:00,
2013-12-08 16:37:00,31.1,29.6,30.15,ESE,113,0.0,0.0,94,0.00,,,0.00,Wunderground v.1.15,2013-12-08 21:37:00,
2013-12-08 16:38:00,31.1,29.6,30.15,ESE,113,0.0,0.0,94,0.00,,,0.00,Wunderground v.1.15,2013-12-08 21:38:00,
2013-12-08 16:39:00,31.1,29.6,30.15,ESE,113,0.0,0.0,94,0.00,,,0.00,Wunderground v.1.15,2013-12-08 21:39:00,
2013-12-08 16:42:00,31.1,29.6,30.15,ESE,113,0.0,0.0,94,0.00,,,0.00,Wunderground v.1.15,2013-12-08 21:42:00,
2013-12-08 16:43:00,31.1,29.6,30.15,ESE,113,0.0,0.0,94,0.00,,,0.00,Wunderground v.1.15,2013-12-08 21:43:00,
2013-12-08 16:44:00,31.1,29.6,30.15,ESE,113,0.0,0.0,94,0.00,,,0.00,Wunderground v.1.15,2013-12-08 21:44:00,
2013-12-08 16:46:00,31.1,29.6,30.15,ESE,113,0.0,0.0,94,0.00,,,0.00,Wunderground v.1.15,2013-12-08 21:46:00,
2013-12-08 16:47:00,31.1,29.6,30.15,ESE,113,0.0,0.0,94,0.00,,,0.00,Wunderground v.1.15,2013-12-08 21:47:00,
2013-12-08 16:48:00,31.1,29.6,30.15,ESE,113,0.0,0.0,94,0.00,,,0.00,Wunderground v.1.15,2013-12-08 21:48:00,
2013-12-08 16:50:00,31.1,29.6,30.15,ESE,113,0.0,0.0,94,0.00,,,0.00,Wunderground v.1.15,2013-12-08 21:50:00,
2013-12-08 16:51:00,31.1,29.6,30.15,ESE,113,0.0,0.0,94,0.00,,,0.00,Wunderground v.1.15,2013-12-08 21:51:00,
2013-12-08 16:52:00,31.1,29.6,30.15,ESE,113,0.0,0.0,94,0.00,,,0.00,Wunderground v.1.15,2013-12-08 21:52:00,
2013-12-08 16:53:00,31.1,29.6,30.15,ESE,113,0.0,0.0,94,0.00,,,0.00,Wunderground v.1.15,2013-12-08 21:53:00,
2013-12-08 16:57:00,31.1,29.6,30.14,ESE,113,0.0,0.0,94,0.00,,,0.00,Wunderground v.1.15,2013-12-08 21:57:00,
2013-12-08 16:58:00,31.1,29.8,30.14,ESE,113,0.0,0.0,95,0.00,,,0.00,Wunderground v.1.15,2013-12-08 21:58:00,
2013-12-08 16:59:00,31.1,29.6,30.14,ESE,113,0.0,0.0,94,0.00,,,0.00,Wunderground v.1.15,2013-12-08 21:59:00,
2013-12-08 17:03:00,31.1,29.6,30.14,ESE,113,0.0,0.0,94,0.00,,,0.00,Wunderground v.1.15,2013-12-08 22:03:00,
2013-12-08 17:04:00,31.1,29.8,30.14,ESE,113,0.0,0.0,95,0.00,,,0.00,Wunderground v.1.15,2013-12-08 22:04:00,
2013-12-08 17:07:00,31.2,29.9,30.14,ESE,113,0.0,0.0,95,0.00,,,0.00,Wunderground v.1.15,2013-12-08 22:07:00,
2013-12-08 17:09:00,31.2,29.9,30.14,ESE,113,0.0,0.0,95,0.00,,,0.00,Wunderground v.1.15,2013-12-08 22:09:00,
2013-12-08 17:11:00,31.2,29.9,30.14,ESE,113,0.0,0.0,95,0.00,,,0.00,Wunderground v.1.15,2013-12-08 22:11:00,
2013-12-08 17:13:00,31.2,29.7,30.14,ESE,113,0.0,0.0,94,0.00,,,0.00,Wunderground v.1.15,2013-12-08 22:13:00,
2013-12-08 17:15:00,31.2,29.9,30.14,ESE,113,0.0,0.0,95,0.00,,,0.00,Wunderground v.1.15,2013-12-08 22:15:00,
2013-12-08 17:17:00,31.2,29.7,30.14,ESE,113,0.0,0.0,94,0.00,,,0.00,Wunderground v.1.15,2013-12-08 22:17:00,
2013-12-08 17:18:00,31.2,29.7,30.14,ESE,113,0.0,0.0,94,0.00,,,0.00,Wunderground v.1.15,2013-12-08 22:18:00,
2013-12-08 17:19:00,31.2,29.7,30.14,ESE,113,0.0,0.0,94,0.00,,,0.00,Wunderground v.1.15,2013-12-08 22:19:00,
2013-12-08 17:20:00,31.2,29.7,30.13,ESE,113,0.0,0.0,94,0.00,,,0.00,Wunderground v.1.15,2013-12-08 22:20:00,
2013-12-08 17:23:00,31.2,29.7,30.13,ESE,113,0.0,0.0,94,0.00,,,0.00,Wunderground v.1.15,2013-12-08 22:23:00,
2013-12-08 17:24:00,31.2,29.7,30.13,ESE,113,0.0,0.0,94,0.00,,,0.00,Wunderground v.1.15,2013-12-08 22:24:00,
2013-12-08 17:27:00,31.2,29.7,30.13,ESE,113,0.0,0.0,94,0.00,,,0.00,Wunderground v.1.15,2013-12-08 22:27:00,
2013-12-08 17:28:00,31.2,29.7,30.13,ESE,113,0.0,0.0,94,0.00,,,0.00,Wunderground v.1.15,2013-12-08 22:28:00,
2013-12-08 17:29:00,31.2,29.7,30.13,ESE,113,0.0,0.0,94,0.00,,,0.00,Wunderground v.1.15,2013-12-08 22:29:00,
2013-12-08 17:30:00,31.2,29.7,30.13,ESE,113,0.0,0.0,94,0.00,,,0.00,Wunderground v.1.15,2013-12-08 22:30:00,
2013-12-08 17:34:00,31.2,29.7,30.13,ESE,113,0.0,0.0,94,0.00,,,0.00,Wunderground v.1.15,2013-12-08 22:34:00,
2013-12-08 17:35:00,31.2,29.7,30.13,ESE,113,0.0,0.0,94,0.00,,,0.00,Wunderground v.1.15,2013-12-08 22:35:00,
2013-12-08 17:36:00,31.2,29.7,30.13,ESE,113,0.0,0.0,94,0.00,,,0.00,Wunderground v.1.15,2013-12-08 22:36:00,
2013-12-08 17:39:00,31.3,30.0,30.13,ESE,113,0.0,0.0,95,0.00,,,0.00,Wunderground v.1.15,2013-12-08 22:39:00,
2013-12-08 17:40:00,31.2,29.9,30.13,ESE,113,0.0,0.0,95,0.00,,,0.00,Wunderground v.1.15,2013-12-08 22:40:00,
2013-12-08 17:41:00,31.3,29.8,30.14,ESE,113,0.0,0.0,94,0.00,,,0.00,Wunderground v.1.15,2013-12-08 22:41:00,
2013-12-08 17:42:00,31.3,30.0,30.14,ESE,113,0.0,0.0,95,0.00,,,0.00,Wunderground v.1.15,2013-12-08 22:42:00,
2013-12-08 17:44:00,31.3,30.0,30.13,ESE,113,0.0,0.0,95,0.00,,,0.00,Wunderground v.1.15,2013-12-08 22:44:00,
2013-12-08 17:45:00,31.3,30.0,30.14,ESE,113,0.0,0.0,95,0.00,,,0.00,Wunderground v.1.15,2013-12-08 22:45:00,
2013-12-08 17:46:00,31.3,30.0,30.14,ESE,113,0.0,0.0,95,0.00,,,0.00,Wunderground v.1.15,2013-12-08 22:46:00,
2013-12-08 17:48:00,31.3,30.0,30.14,ESE,113,0.0,0.0,95,0.00,,,0.00,Wunderground v.1.15,2013-12-08 22:48:00,
2013-12-08 17:50:00,31.3,30.0,30.14,ESE,113,0.0,0.0,95,0.00,,,0.00,Wunderground v.1.15,2013-12-08 22:50:00,
2013-12-08 17:51:00,31.3,30.0,30.14,ESE,113,0.0,0.0,95,0.00,,,0.00,Wunderground v.1.15,2013-12-08 22:51:00,
2013-12-08 17:52:00,31.3,30.0,30.14,ESE,113,0.0,0.0,95,0.00,,,0.00,Wunderground v.1.15,2013-12-08 22:52:00,
2013-12-08 17:53:00,31.2,29.9,30.14,ESE,113,0.0,0.0,95,0.00,,,0.00,Wunderground v.1.15,2013-12-08 22:53:00,
2013-12-08 17:54:00,31.2,29.9,30.14,ESE,113,0.0,0.0,95,0.00,,,0.00,Wunderground v.1.15,2013-12-08 22:54:00,
2013-12-08 17:56:00,31.3,30.0,30.14,ESE,113,0.0,0.0,95,0.00,,,0.00,Wunderground v.1.15,2013-12-08 22:56:00,
2013-12-08 17:58:00,31.2,29.9,30.14,ESE,113,0.0,0.0,95,0.00,,,0.00,Wunderground v.1.15,2013-12-08 22:58:00,
2013-12-08 18:01:00,31.3,30.0,30.14,ESE,113,0.0,0.0,95,0.00,,,0.00,Wunderground v.1.15,2013-12-08 23:01:00,
2013-12-08 18:03:00,31.3,30.0,30.13,ESE,113,0.0,0.0,95,0.00,,,0.00,Wunderground v.1.15,2013-12-08 23:03:00,
2013-12-08 18:05:00,31.3,30.0,30.13,ESE,113,0.0,0.0,95,0.00,,,0.00,Wunderground v.1.15,2013-12-08 23:05:00,
2013-12-08 18:06:00,31.3,30.0,30.13,ESE,113,0.0,0.0,95,0.00,,,0.00,Wunderground v.1.15,2013-12-08 23:06:00,
2013-12-08 18:08:00,31.3,30.0,30.13,ESE,113,0.0,0.0,95,0.00,,,0.00,Wunderground v.1.15,2013-12-08 23:08:00,
2013-12-08 18:11:00,31.4,30.1,30.13,ESE,113,0.0,0.0,95,0.00,,,0.00,Wunderground v.1.15,2013-12-08 23:11:00,
2013-12-08 18:13:00,31.4,30.1,30.13,ESE,113,0.0,0.0,95,0.00,,,0.00,Wunderground v.1.15,2013-12-08 23:13:00,
2013-12-08 18:14:00,31.4,30.1,30.13,ESE,113,0.0,0.0,95,0.00,,,0.00,Wunderground v.1.15,2013-12-08 23:14:00,
2013-12-08 18:16:00,31.4,30.1,30.12,ESE,113,0.0,0.0,95,0.00,,,0.00,Wunderground v.1.15,2013-12-08 23:16:00,
2013-12-08 18:17:00,31.4,30.1,30.12,ESE,113,0.0,0.0,95,0.00,,,0.00,Wunderground v.1.15,2013-12-08 23:17:00,
2013-12-08 18:18:00,31.4,30.1,30.12,ESE,113,0.0,0.0,95,0.00,,,0.00,Wunderground v.1.15,2013-12-08 23:18:00,
2013-12-08 18:19:00,31.4,30.1,30.12,ESE,113,0.0,0.0,95,0.00,,,0.00,Wunderground v.1.15,2013-12-08 23:19:00,
2013-12-08 18:23:00,31.5,30.2,30.12,ESE,113,0.0,0.0,95,0.00,,,0.00,Wunderground v.1.15,2013-12-08 23:23:00,
2013-12-08 18:24:00,31.5,30.2,30.12,ESE,113,0.0,0.0,95,0.00,,,0.00,Wunderground v.1.15,2013-12-08 23:24:00,
2013-12-08 18:27:00,31.5,30.2,30.12,ESE,113,0.0,0.0,95,0.00,,,0.00,Wunderground v.1.15,2013-12-08 23:27:00,
2013-12-08 18:28:00,31.4,30.1,30.12,ESE,113,0.0,0.0,95,0.00,,,0.00,Wunderground v.1.15,2013-12-08 23:28:00,
2013-12-08 18:29:00,31.4,30.1,30.12,ESE,113,0.0,0.0,95,0.00,,,0.00,Wunderground v.1.15,2013-12-08 23:29:00,
2013-12-08 18:34:00,31.5,30.2,30.12,ESE,113,0.0,0.0,95,0.00,,,0.00,Wunderground v.1.15,2013-12-08 23:34:00,
2013-12-08 18:36:00,31.5,30.2,30.12,ESE,113,0.0,0.0,95,0.00,,,0.00,Wunderground v.1.15,2013-12-08 23:36:00,
2013-12-08 18:37:00,31.5,30.2,30.12,ESE,113,0.0,0.0,95,0.00,,,0.00,Wunderground v.1.15,2013-12-08 23:37:00,
2013-12-08 18:39:00,31.5,30.2,30.13,ESE,113,0.0,0.0,95,0.00,,,0.00,Wunderground v.1.15,2013-12-08 23:39:00,
2013-12-08 18:40:00,31.5,30.2,30.13,ESE,113,0.0,0.0,95,0.00,,,0.00,Wunderground v.1.15,2013-12-08 23:40:00,
2013-12-08 18:42:00,31.5,30.2,30.13,ESE,113,0.0,0.0,95,0.00,,,0.00,Wunderground v.1.15,2013-12-08 23:42:00,
2013-12-08 18:43:00,31.5,30.2,30.13,ESE,113,0.0,0.0,95,0.00,,,0.00,Wunderground v.1.15,2013-12-08 23:43:00,
2013-12-08 18:47:00,31.6,30.3,30.13,ESE,113,0.0,0.0,95,0.00,,,0.00,Wunderground v.1.15,2013-12-08 23:47:00,
2013-12-08 18:48:00,31.6,30.3,30.13,ESE,113,0.0,0.0,95,0.00,,,0.00,Wunderground v.1.15,2013-12-08 23:48:00,
2013-12-08 18:49:00,31.6,30.3,30.13,ESE,113,0.0,0.0,95,0.00,,,0.00,Wunderground v.1.15,2013-12-08 23:49:00,
2013-12-08 18:50:00,31.6,30.3,30.12,ESE,113,0.0,0.0,95,0.00,,,0.00,Wunderground v.1.15,2013-12-08 23:50:00,
2013-12-08 18:55:00,31.7,30.4,30.12,ESE,113,0.0,0.0,95,0.00,,,0.00,Wunderground v.1.15,2013-12-08 23:55:00,
2013-12-08 18:56:00,31.7,30.4,30.12,ESE,113,0.0,0.0,95,0.00,,,0.00,Wunderground v.1.15,2013-12-08 23:56:00,
2013-12-08 18:57:00,31.7,30.4,30.12,ESE,113,0.0,0.0,95,0.00,,,0.00,Wunderground v.1.15,2013-12-08 23:57:00,
2013-12-08 18:58:00,31.7,30.4,30.12,ESE,113,0.0,0.0,95,0.00,,,0.00,Wunderground v.1.15,2013-12-08 23:58:00,
2013-12-08 19:01:00,31.8,30.5,30.12,ESE,113,0.0,0.0,95,0.00,,,0.00,Wunderground v.1.15,2013-12-09 00:01:00,
2013-12-08 19:02:00,31.8,30.5,30.13,ESE,113,0.0,0.0,95,0.00,,,0.00,Wunderground v.1.15,2013-12-09 00:02:00,
2013-12-08 19:03:00,31.8,30.5,30.13,ESE,113,0.0,0.0,95,0.00,,,0.00,Wunderground v.1.15,2013-12-09 00:03:00,
2013-12-08 19:04:00,31.8,30.5,30.13,ESE,113,0.0,0.0,95,0.00,,,0.00,Wunderground v.1.15,2013-12-09 00:04:00,
2013-12-08 19:06:00,31.8,30.5,30.13,ESE,113,0.0,0.0,95,0.00,,,0.00,Wunderground v.1.15,2013-12-09 00:06:00,
2013-12-08 19:07:00,31.8,30.5,30.13,ESE,113,0.0,0.0,95,0.00,,,0.00,Wunderground v.1.15,2013-12-09 00:07:00,
2013-12-08 19:09:00,31.8,30.5,30.13,ESE,113,0.0,0.0,95,0.00,,,0.00,Wunderground v.1.15,2013-12-09 00:09:00,
2013-12-08 19:10:00,31.8,30.5,30.13,ESE,113,0.0,0.0,95,0.00,,,0.00,Wunderground v.1.15,2013-12-09 00:10:00,
2013-12-08 19:14:00,31.8,30.5,30.13,ESE,113,0.0,0.0,95,0.00,,,0.00,Wunderground v.1.15,2013-12-09 00:14:00,
2013-12-08 19:15:00,31.8,30.5,30.13,ESE,113,0.0,0.0,95,0.00,,,0.00,Wunderground v.1.15,2013-12-09 00:15:00,
2013-12-08 19:19:00,31.9,30.6,30.13,ESE,113,0.0,0.0,95,0.00,,,0.00,Wunderground v.1.15,2013-12-09 00:19:00,
2013-12-08 19:20:00,31.9,30.6,30.13,ESE,113,0.0,0.0,95,0.00,,,0.00,Wunderground v.1.15,2013-12-09 00:20:00,
2013-12-08 19:21:00,31.9,30.6,30.13,ESE,113,0.0,0.0,95,0.00,,,0.00,Wunderground v.1.15,2013-12-09 00:21:00,
2013-12-08 19:23:00,31.9,30.6,30.13,ESE,113,0.0,0.0,95,0.00,,,0.00,Wunderground v.1.15,2013-12-09 00:23:00,
2013-12-08 19:24:00,31.9,30.6,30.13,ESE,113,0.0,0.0,95,0.00,,,0.00,Wunderground v.1.15,2013-12-09 00:24:00,
2013-12-08 19:25:00,31.9,30.6,30.13,ESE,113,0.0,0.0,95,0.00,,,0.00,Wunderground v.1.15,2013-12-09 00:25:00,
2013-12-08 19:26:00,31.9,30.6,30.13,ESE,113,0.0,0.0,95,0.00,,,0.00,Wunderground v.1.15,2013-12-09 00:26:00,
2013-12-08 19:28:00,31.9,30.6,30.13,ESE,113,0.0,0.0,95,0.00,,,0.00,Wunderground v.1.15,2013-12-09 00:28:00,
2013-12-08 19:30:00,31.9,30.6,30.13,ESE,113,0.0,0.0,95,0.00,,,0.00,Wunderground v.1.15,2013-12-09 00:30:00,
2013-12-08 19:31:00,31.9,30.6,30.13,ESE,113,0.0,0.0,95,0.00,,,0.00,Wunderground v.1.15,2013-12-09 00:31:00,
2013-12-08 19:33:00,31.9,30.6,30.13,ESE,113,0.0,0.0,95,0.00,,,0.00,Wunderground v.1.15,2013-12-09 00:33:00,
2013-12-08 19:37:00,31.9,30.6,30.13,ESE,113,0.0,0.0,95,0.00,,,0.00,Wunderground v.1.15,2013-12-09 00:37:00,
2013-12-08 19:39:00,31.9,30.6,30.13,ESE,113,0.0,0.0,95,0.00,,,0.00,Wunderground v.1.15,2013-12-09 00:39:00,
2013-12-08 19:40:00,31.9,30.6,30.13,ESE,113,0.0,0.0,95,0.00,,,0.00,Wunderground v.1.15,2013-12-09 00:40:00,
2013-12-08 19:41:00,31.9,30.6,30.12,ESE,113,0.0,0.0,95,0.00,,,0.00,Wunderground v.1.15,2013-12-09 00:41:00,
2013-12-08 19:44:00,31.9,30.6,30.12,ESE,113,0.0,0.0,95,0.00,,,0.00,Wunderground v.1.15,2013-12-09 00:44:00,
2013-12-08 19:46:00,32.0,30.7,30.12,ESE,113,0.0,0.0,95,0.00,,,0.00,Wunderground v.1.15,2013-12-09 00:46:00,
2013-12-08 19:47:00,32.0,30.7,30.12,ESE,113,0.0,0.0,95,0.00,,,0.00,Wunderground v.1.15,2013-12-09 00:47:00,
2013-12-08 19:48:00,32.0,30.7,30.12,ESE,113,0.0,0.0,95,0.00,,,0.00,Wunderground v.1.15,2013-12-09 00:48:00,
2013-12-08 19:50:00,32.0,30.7,30.12,ESE,113,0.0,0.0,95,0.00,,,0.00,Wunderground v.1.15,2013-12-09 00:50:00,
2013-12-08 19:55:00,32.0,30.7,30.12,ESE,113,0.0,0.0,95,0.00,,,0.00,Wunderground v.1.15,2013-12-09 00:55:00,
2013-12-08 19:57:00,32.0,30.7,30.12,ESE,113,0.0,0.0,95,0.00,,,0.00,Wunderground v.1.15,2013-12-09 00:57:00,
2013-12-08 19:58:00,32.0,30.7,30.12,ESE,113,0.0,0.0,95,0.00,,,0.00,Wunderground v.1.15,2013-12-09 00:58:00,
2013-12-08 19:59:00,32.0,30.7,30.12,ESE,113,0.0,0.0,95,0.00,,,0.00,Wunderground v.1.15,2013-12-09 00:59:00,
2013-12-08 20:00:00,32.0,30.7,30.12,ESE,113,0.0,0.0,95,0.00,,,0.00,Wunderground v.1.15,2013-12-09 01:00:00,
2013-12-08 20:05:00,32.0,30.7,30.13,ESE,113,0.0,0.0,95,0.00,,,0.00,Wunderground v.1.15,2013-12-09 01:05:00,
2013-12-08 20:06:00,32.0,30.7,30.13,ESE,113,0.0,0.0,95,0.00,,,0.00,Wunderground v.1.15,2013-12-09 01:06:00,
2013-12-08 20:07:00,32.0,30.7,30.13,ESE,113,0.0,0.0,95,0.00,,,0.00,Wunderground v.1.15,2013-12-09 01:07:00,
2013-12-08 20:09:00,32.0,30.7,30.14,ESE,113,0.0,0.0,95,0.00,,,0.00,Wunderground v.1.15,2013-12-09 01:09:00,
2013-12-08 20:10:00,32.1,30.8,30.14,ESE,113,0.0,0.0,95,0.00,,,0.00,Wunderground v.1.15,2013-12-09 01:10:00,
2013-12-08 20:11:00,32.0,30.7,30.14,ESE,113,0.0,0.0,95,0.00,,,0.00,Wunderground v.1.15,2013-12-09 01:11:00,
2013-12-08 20:14:00,32.0,30.7,30.14,ESE,113,0.0,0.0,95,0.00,,,0.00,Wunderground v.1.15,2013-12-09 01:14:00,
2013-12-08 20:15:00,32.0,30.7,30.14,ESE,113,0.0,0.0,95,0.00,,,0.00,Wunderground v.1.15,2013-12-09 01:15:00,
2013-12-08 20:16:00,32.1,30.8,30.14,ESE,113,0.0,0.0,95,0.00,,,0.00,Wunderground v.1.15,2013-12-09 01:16:00,
2013-12-08 20:17:00,32.1,30.8,30.14,ESE,113,0.0,0.0,95,0.00,,,0.00,Wunderground v.1.15,2013-12-09 01:17:00,
2013-12-08 20:19:00,32.1,30.8,30.14,ESE,113,0.0,0.0,95,0.00,,,0.00,Wunderground v.1.15,2013-12-09 01:19:00,
2013-12-08 20:21:00,32.1,30.8,30.15,ESE,113,0.0,0.0,95,0.00,,,0.00,Wunderground v.1.15,2013-12-09 01:21:00,
2013-12-08 20:22:00,32.1,30.8,30.14,ESE,113,0.0,0.0,95,0.00,,,0.00,Wunderground v.1.15,2013-12-09 01:22:00,
2013-12-08 20:23:00,32.1,30.8,30.14,ESE,113,0.0,0.0,95,0.00,,,0.00,Wunderground v.1.15,2013-12-09 01:23:00,
2013-12-08 20:25:00,32.0,30.7,30.14,ESE,113,0.0,0.0,95,0.00,,,0.00,Wunderground v.1.15,2013-12-09 01:25:00,
2013-12-08 20:29:00,32.1,30.8,30.14,ESE,113,0.0,0.0,95,0.00,,,0.00,Wunderground v.1.15,2013-12-09 01:29:00,
2013-12-08 20:31:00,32.1,30.8,30.14,ESE,113,0.0,0.0,95,0.00,,,0.00,Wunderground v.1.15,2013-12-09 01:31:00,
2013-12-08 20:34:00,32.1,30.8,30.14,ESE,113,0.0,0.0,95,0.00,,,0.00,Wunderground v.1.15,2013-12-09 01:34:00,
2013-12-08 20:35:00,32.1,30.8,30.14,ESE,113,0.0,0.0,95,0.00,,,0.00,Wunderground v.1.15,2013-12-09 01:35:00,
2013-12-08 20:36:00,32.1,30.8,30.14,ESE,113,0.0,0.0,95,0.00,,,0.00,Wunderground v.1.15,2013-12-09 01:36:00,
2013-12-08 20:37:00,32.1,30.8,30.13,ESE,113,0.0,0.0,95,0.00,,,0.00,Wunderground v.1.15,2013-12-09 01:37:00,
2013-12-08 20:38:00,32.1,30.8,30.13,ESE,113,0.0,0.0,95,0.00,,,0.00,Wunderground v.1.15,2013-12-09 01:38:00,
2013-12-08 20:39:00,32.1,30.8,30.13,ESE,113,0.0,0.0,95,0.00,,,0.00,Wunderground v.1.15,2013-12-09 01:39:00,
2013-12-08 20:41:00,32.1,30.8,30.13,ESE,113,0.0,0.0,95,0.00,,,0.00,Wunderground v.1.15,2013-12-09 01:41:00,
2013-12-08 20:43:00,32.2,30.9,30.13,ESE,113,0.0,0.0,95,0.00,,,0.00,Wunderground v.1.15,2013-12-09 01:43:00,
2013-12-08 20:46:00,32.2,30.9,30.13,ESE,113,0.0,0.0,95,0.00,,,0.00,Wunderground v.1.15,2013-12-09 01:46:00,
2013-12-08 20:47:00,32.1,30.8,30.13,ESE,113,0.0,0.0,95,0.00,,,0.00,Wunderground v.1.15,2013-12-09 01:47:00,
2013-12-08 20:49:00,32.1,30.8,30.13,ESE,113,0.0,0.0,95,0.00,,,0.00,Wunderground v.1.15,2013-12-09 01:49:00,
2013-12-08 20:51:00,32.2,30.9,30.13,ESE,113,0.0,0.0,95,0.00,,,0.00,Wunderground v.1.15,2013-12-09 01:51:00,
2013-12-08 20:53:00,32.2,30.9,30.13,ESE,113,0.0,0.0,95,0.00,,,0.00,Wunderground v.1.15,2013-12-09 01:53:00,
2013-12-08 20:54:00,32.2,30.9,30.12,ESE,113,0.0,0.0,95,0.00,,,0.00,Wunderground v.1.15,2013-12-09 01:54:00,
2013-12-08 20:55:00,32.2,30.9,30.13,ESE,113,0.0,0.0,95,0.00,,,0.00,Wunderground v.1.15,2013-12-09 01:55:00,
2013-12-08 20:59:00,32.2,30.9,30.13,ESE,113,0.0,0.0,95,0.00,,,0.00,Wunderground v.1.15,2013-12-09 01:59:00,
2013-12-08 21:00:00,32.2,30.9,30.13,ESE,113,0.0,0.0,95,0.00,,,0.00,Wunderground v.1.15,2013-12-09 02:00:00,
2013-12-08 21:01:00,32.3,31.0,30.13,ESE,113,0.0,0.0,95,0.00,,,0.00,Wunderground v.1.15,2013-12-09 02:01:00,
2013-12-08 21:04:00,32.2,30.9,30.13,ESE,113,0.0,0.0,95,0.00,,,0.00,Wunderground v.1.15,2013-12-09 02:04:00,
2013-12-08 21:06:00,32.3,31.0,30.13,ESE,113,0.0,0.0,95,0.00,,,0.00,Wunderground v.1.15,2013-12-09 02:06:00,
2013-12-08 21:07:00,32.3,31.0,30.12,ESE,113,0.0,0.0,95,0.00,,,0.00,Wunderground v.1.15,2013-12-09 02:07:00,
2013-12-08 21:09:00,32.2,30.9,30.13,ESE,113,0.0,0.0,95,0.00,,,0.00,Wunderground v.1.15,2013-12-09 02:09:00,
2013-12-08 21:10:00,32.3,31.0,30.13,ESE,113,0.0,0.0,95,0.00,,,0.00,Wunderground v.1.15,2013-12-09 02:10:00,
2013-12-08 21:11:00,32.3,31.0,30.13,ESE,113,0.0,0.0,95,0.00,,,0.00,Wunderground v.1.15,2013-12-09 02:11:00,
2013-12-08 21:14:00,32.3,31.0,30.13,ESE,113,0.0,0.0,95,0.00,,,0.00,Wunderground v.1.15,2013-12-09 02:14:00,
2013-12-08 21:15:00,32.2,30.9,30.13,ESE,113,0.0,0.0,95,0.00,,,0.00,Wunderground v.1.15,2013-12-09 02:15:00,
2013-12-08 21:16:00,32.3,31.0,30.13,ESE,113,0.0,0.0,95,0.00,,,0.00,Wunderground v.1.15,2013-12-09 02:16:00,
2013-12-08 21:18:00,32.3,31.0,30.13,ESE,113,0.0,0.0,95,0.00,,,0.00,Wunderground v.1.15,2013-12-09 02:18:00,
2013-12-08 21:19:00,32.3,31.0,30.13,ESE,113,0.0,0.0,95,0.00,,,0.00,Wunderground v.1.15,2013-12-09 02:19:00,
2013-12-08 21:21:00,32.3,31.0,30.13,ESE,113,0.0,0.0,95,0.00,,,0.00,Wunderground v.1.15,2013-12-09 02:21:00,
2013-12-08 21:22:00,32.3,31.0,30.13,West,261,0.0,1.0,95,0.00,,,0.00,Wunderground v.1.15,2013-12-09 02:22:00,
2013-12-08 21:23:00,32.3,31.0,30.13,WSW,240,0.0,1.0,95,0.00,,,0.00,Wunderground v.1.15,2013-12-09 02:23:00,
2013-12-08 21:24:00,32.3,31.0,30.13,WSW,241,0.0,1.0,95,0.00,,,0.00,Wunderground v.1.15,2013-12-09 02:24:00,
2013-12-08 21:26:00,32.4,31.1,30.13,WSW,241,0.0,1.0,95,0.00,,,0.00,Wunderground v.1.15,2013-12-09 02:26:00,
2013-12-08 21:29:00,32.4,31.1,30.13,WSW,241,0.0,0.0,95,0.00,,,0.00,Wunderground v.1.15,2013-12-09 02:29:00,
2013-12-08 21:31:00,32.4,31.1,30.13,WSW,241,0.0,0.0,95,0.00,,,0.00,Wunderground v.1.15,2013-12-09 02:31:00,
2013-12-08 21:32:00,32.5,31.2,30.13,WSW,241,0.0,0.0,95,0.00,,,0.00,Wunderground v.1.15,2013-12-09 02:32:00,
2013-12-08 21:36:00,32.5,31.2,30.13,WSW,248,0.0,1.0,95,0.00,,,0.00,Wunderground v.1.15,2013-12-09 02:36:00,
2013-12-08 21:38:00,32.6,31.3,30.13,WSW,248,0.0,3.0,95,0.00,,,0.00,Wunderground v.1.15,2013-12-09 02:38:00,
2013-12-08 21:39:00,32.6,31.3,30.13,WSW,251,0.0,3.0,95,0.00,,,0.00,Wunderground v.1.15,2013-12-09 02:39:00,
2013-12-08 21:42:00,32.7,31.4,30.13,SSW,199,0.0,3.0,95,0.00,,,0.00,Wunderground v.1.15,2013-12-09 02:42:00,
2013-12-08 21:45:00,32.7,31.4,30.13,SSW,199,0.0,3.0,95,0.00,,,0.00,Wunderground v.1.15,2013-12-09 02:45:00,
2013-12-08 21:46:00,32.7,31.4,30.13,SSW,199,0.0,3.0,95,0.00,,,0.00,Wunderground v.1.15,2013-12-09 02:46:00,
2013-12-08 21:49:00,32.7,31.4,30.13,WSW,252,0.0,3.0,95,0.00,,,0.00,Wunderground v.1.15,2013-12-09 02:49:00,
2013-12-08 21:50:00,32.7,31.4,30.13,WSW,252,0.0,3.0,95,0.00,,,0.00,Wunderground v.1.15,2013-12-09 02:50:00,
2013-12-08 21:51:00,32.7,31.4,30.13,WSW,252,0.0,3.0,95,0.00,,,0.00,Wunderground v.1.15,2013-12-09 02:51:00,
2013-12-08 21:53:00,32.7,31.4,30.13,SW,221,0.0,3.0,95,0.00,,,0.00,Wunderground v.1.15,2013-12-09 02:53:00,
2013-12-08 21:56:00,32.8,31.5,30.13,WNW,288,0.0,3.0,95,0.00,,,0.00,Wunderground v.1.15,2013-12-09 02:56:00,
2013-12-08 21:57:00,32.8,31.5,30.13,WNW,288,0.0,3.0,95,0.00,,,0.00,Wunderground v.1.15,2013-12-09 02:57:00,
2013-12-08 21:59:00,32.8,31.5,30.13,WNW,288,0.0,3.0,95,0.00,,,0.00,Wunderground v.1.15,2013-12-09 02:59:00,
2013-12-08 22:03:00,32.8,31.5,30.13,WNW,288,0.0,3.0,95,0.00,,,0.00,Wunderground v.1.15,2013-12-09 03:03:00,
2013-12-08 22:04:00,32.8,31.5,30.13,WNW,288,0.0,3.0,95,0.00,,,0.00,Wunderground v.1.15,2013-12-09 03:04:00,
2013-12-08 22:05:00,32.7,31.4,30.13,WNW,288,0.0,3.0,95,0.00,,,0.00,Wunderground v.1.15,2013-12-09 03:05:00,
2013-12-08 22:06:00,32.8,31.5,30.13,WNW,288,0.0,3.0,95,0.00,,,0.00,Wunderground v.1.15,2013-12-09 03:06:00,
2013-12-08 22:07:00,32.7,31.4,30.13,WNW,288,0.0,3.0,95,0.00,,,0.00,Wunderground v.1.15,2013-12-09 03:07:00,
2013-12-08 22:08:00,32.8,31.5,30.13,WNW,288,0.0,3.0,95,0.00,,,0.00,Wunderground v.1.15,2013-12-09 03:08:00,
2013-12-08 22:13:00,32.9,31.6,30.13,WNW,288,1.0,3.0,95,0.00,,,0.00,Wunderground v.1.15,2013-12-09 03:13:00,
2013-12-08 22:14:00,32.9,31.6,30.13,WNW,288,1.0,3.0,95,0.00,,,0.00,Wunderground v.1.15,2013-12-09 03:14:00,
2013-12-08 22:15:00,32.9,31.6,30.13,WNW,288,1.0,3.0,95,0.00,,,0.00,Wunderground v.1.15,2013-12-09 03:15:00,
2013-12-08 22:17:00,32.9,31.6,30.13,WNW,288,1.0,1.0,95,0.00,,,0.00,Wunderground v.1.15,2013-12-09 03:17:00,
2013-12-08 22:18:00,32.9,31.6,30.13,WNW,288,1.0,3.0,95,0.00,,,0.00,Wunderground v.1.15,2013-12-09 03:18:00,
2013-12-08 22:19:00,32.9,31.6,30.13,WNW,288,1.0,3.0,95,0.00,,,0.00,Wunderground v.1.15,2013-12-09 03:19:00,
2013-12-08 22:20:00,32.9,31.6,30.13,WNW,288,1.0,3.0,95,0.00,,,0.00,Wunderground v.1.15,2013-12-09 03:20:00,
2013-12-08 22:24:00,32.8,31.5,30.13,WNW,288,1.0,3.0,95,0.00,,,0.00,Wunderground v.1.15,2013-12-09 03:24:00,
2013-12-08 22:25:00,32.8,31.5,30.13,WNW,288,1.0,3.0,95,0.00,,,0.00,Wunderground v.1.15,2013-12-09 03:25:00,
2013-12-08 22:26:00,32.8,31.5,30.13,WNW,288,0.0,3.0,95,0.00,,,0.00,Wunderground v.1.15,2013-12-09 03:26:00,
2013-12-08 22:28:00,32.8,31.5,30.13,WNW,288,0.0,3.0,95,0.00,,,0.00,Wunderground v.1.15,2013-12-09 03:28:00,
2013-12-08 22:29:00,32.8,31.5,30.13,WNW,288,1.0,3.0,95,0.00,,,0.00,Wunderground v.1.15,2013-12-09 03:29:00,
2013-12-08 22:30:00,32.8,31.5,30.13,WNW,288,1.0,3.0,95,0.00,,,0.00,Wunderground v.1.15,2013-12-09 03:30:00,
2013-12-08 22:35:00,32.8,31.5,30.13,WNW,288,1.0,3.0,95,0.00,,,0.00,Wunderground v.1.15,2013-12-09 03:35:00,
2013-12-08 22:36:00,32.9,31.6,30.13,WNW,288,1.0,3.0,95,0.00,,,0.00,Wunderground v.1.15,2013-12-09 03:36:00,
2013-12-08 22:38:00,32.9,31.6,30.13,WNW,288,1.0,3.0,95,0.00,,,0.00,Wunderground v.1.15,2013-12-09 03:38:00,
2013-12-08 22:41:00,32.9,31.6,30.13,WNW,288,1.0,3.0,95,0.00,,,0.00,Wunderground v.1.15,2013-12-09 03:41:00,
2013-12-08 22:42:00,32.9,31.6,30.13,WNW,288,1.0,3.0,95,0.00,,,0.00,Wunderground v.1.15,2013-12-09 03:42:00,
2013-12-08 22:43:00,32.9,31.6,30.13,WNW,288,1.0,3.0,95,0.00,,,0.00,Wunderground v.1.15,2013-12-09 03:43:00,
2013-12-08 22:44:00,32.9,31.6,30.13,WNW,288,1.0,4.0,95,0.00,,,0.00,Wunderground v.1.15,2013-12-09 03:44:00,
2013-12-08 22:46:00,32.8,31.5,30.13,WNW,288,1.0,4.0,95,0.00,,,0.00,Wunderground v.1.15,2013-12-09 03:46:00,
2013-12-08 22:48:00,32.8,31.5,30.13,WNW,288,1.0,3.0,95,0.00,,,0.00,Wunderground v.1.15,2013-12-09 03:48:00,
2013-12-08 22:49:00,32.8,31.5,30.13,WNW,288,1.0,3.0,95,0.00,,,0.00,Wunderground v.1.15,2013-12-09 03:49:00,
2013-12-08 22:51:00,32.8,31.5,30.13,WNW,288,1.0,3.0,95,0.00,,,0.00,Wunderground v.1.15,2013-12-09 03:51:00,
2013-12-08 22:52:00,32.8,31.5,30.13,WNW,288,1.0,3.0,95,0.00,,,0.00,Wunderground v.1.15,2013-12-09 03:52:00,
2013-12-08 22:54:00,32.8,31.5,30.13,WNW,288,1.0,3.0,95,0.00,,,0.00,Wunderground v.1.15,2013-12-09 03:54:00,
2013-12-08 22:55:00,32.8,31.5,30.13,WNW,288,1.0,3.0,95,0.00,,,0.00,Wunderground v.1.15,2013-12-09 03:55:00,
2013-12-08 22:58:00,32.8,31.5,30.13,WNW,288,1.0,3.0,95,0.00,,,0.00,Wunderground v.1.15,2013-12-09 03:58:00,
2013-12-08 22:59:00,32.8,31.5,30.13,WNW,288,1.0,3.0,95,0.00,,,0.00,Wunderground v.1.15,2013-12-09 03:59:00,
2013-12-08 23:00:00,32.8,31.5,30.13,WNW,288,1.0,3.0,95,0.00,,,0.00,Wunderground v.1.15,2013-12-09 04:00:00,
2013-12-08 23:01:00,32.8,31.5,30.13,WNW,288,1.0,3.0,95,0.00,,,0.00,Wunderground v.1.15,2013-12-09 04:01:00,
2013-12-08 23:03:00,32.8,31.5,30.13,WNW,288,1.0,3.0,95,0.00,,,0.00,Wunderground v.1.15,2013-12-09 04:03:00,
2013-12-08 23:04:00,32.8,31.5,30.13,WNW,288,1.0,3.0,95,0.00,,,0.00,Wunderground v.1.15,2013-12-09 04:04:00,
2013-12-08 23:05:00,32.8,31.5,30.13,WNW,288,1.0,3.0,95,0.00,,,0.00,Wunderground v.1.15,2013-12-09 04:05:00,
2013-12-08 23:07:00,32.8,31.5,30.13,WNW,288,1.0,4.0,95,0.00,,,0.00,Wunderground v.1.15,2013-12-09 04:07:00,
2013-12-08 23:08:00,32.8,31.5,30.13,WNW,288,2.0,4.0,95,0.00,,,0.00,Wunderground v.1.15,2013-12-09 04:08:00,
2013-12-08 23:10:00,32.9,31.6,30.13,WNW,288,2.0,4.0,95,0.00,,,0.00,Wunderground v.1.15,2013-12-09 04:10:00,
2013-12-08 23:12:00,32.8,31.5,30.12,WNW,288,2.0,4.0,95,0.00,,,0.00,Wunderground v.1.15,2013-12-09 04:12:00,
2013-12-08 23:14:00,32.8,31.5,30.13,WNW,288,2.0,5.0,95,0.00,,,0.00,Wunderground v.1.15,2013-12-09 04:14:00,
2013-12-08 23:16:00,32.9,31.6,30.13,WNW,288,2.0,5.0,95,0.00,,,0.00,Wunderground v.1.15,2013-12-09 04:16:00,
2013-12-08 23:18:00,32.8,31.5,30.13,WNW,288,2.0,3.0,95,0.00,,,0.00,Wunderground v.1.15,2013-12-09 04:18:00,
2013-12-08 23:20:00,32.8,31.5,30.13,WNW,288,2.0,3.0,95,0.00,,,0.00,Wunderground v.1.15,2013-12-09 04:20:00,
2013-12-08 23:21:00,32.8,31.5,30.13,WNW,288,2.0,3.0,95,0.00,,,0.00,Wunderground v.1.15,2013-12-09 04:21:00,
2013-12-08 23:22:00,32.8,31.5,30.13,WNW,288,2.0,3.0,95,0.00,,,0.00,Wunderground v.1.15,2013-12-09 04:22:00,
2013-12-08 23:25:00,32.8,31.5,30.13,WNW,288,2.0,3.0,95,0.00,,,0.00,Wunderground v.1.15,2013-12-09 04:25:00,
2013-12-08 23:27:00,32.8,31.5,30.13,WNW,288,2.0,3.0,95,0.00,,,0.00,Wunderground v.1.15,2013-12-09 04:27:00,
2013-12-08 23:28:00,32.8,31.5,30.13,WNW,288,2.0,3.0,95,0.00,,,0.00,Wunderground v.1.15,2013-12-09 04:28:00,
2013-12-08 23:29:00,32.8,31.5,30.13,WNW,288,1.0,3.0,95,0.00,,,0.00,Wunderground v.1.15,2013-12-09 04:29:00,
2013-12-08 23:31:00,32.8,31.5,30.13,WNW,288,1.0,3.0,95,0.00,,,0.00,Wunderground v.1.15,2013-12-09 04:31:00,
2013-12-08 23:32:00,32.8,31.5,30.13,WNW,288,1.0,3.0,95,0.00,,,0.00,Wunderground v.1.15,2013-12-09 04:32:00,
2013-12-08 23:34:00,32.8,31.5,30.13,SSW,209,1.0,3.0,95,0.00,,,0.00,Wunderground v.1.15,2013-12-09 04:34:00,
2013-12-08 23:36:00,32.8,31.5,30.13,SSW,209,1.0,3.0,95,0.00,,,0.00,Wunderground v.1.15,2013-12-09 04:36:00,
2013-12-08 23:37:00,32.8,31.5,30.13,WSW,252,2.0,2.0,95,0.00,,,0.00,Wunderground v.1.15,2013-12-09 04:37:00,
2013-12-08 23:38:00,32.8,31.5,30.13,WSW,248,1.0,6.0,95,0.00,,,0.00,Wunderground v.1.15,2013-12-09 04:38:00,
2013-12-08 23:40:00,32.8,31.5,30.13,WSW,241,2.0,6.0,95,0.00,,,0.00,Wunderground v.1.15,2013-12-09 04:40:00,
2013-12-08 23:43:00,32.8,31.5,30.13,WSW,244,2.0,6.0,95,0.00,,,0.00,Wunderground v.1.15,2013-12-09 04:43:00,
2013-12-08 23:45:00,32.8,31.5,30.13,WSW,251,1.0,6.0,95,0.00,,,0.00,Wunderground v.1.15,2013-12-09 04:45:00,
2013-12-08 23:46:00,32.7,31.4,30.14,SW,229,1.0,6.0,95,0.00,,,0.00,Wunderground v.1.15,2013-12-09 04:46:00,
2013-12-08 23:48:00,32.8,31.5,30.14,West,261,1.0,6.0,95,0.00,,,0.00,Wunderground v.1.15,2013-12-09 04:48:00,
2013-12-08 23:52:00,32.8,31.5,30.14,SSW,202,1.0,6.0,95,0.00,,,0.00,Wunderground v.1.15,2013-12-09 04:52:00,
2013-12-08 23:53:00,32.8,31.5,30.14,SSW,200,2.0,6.0,95,0.00,,,0.00,Wunderground v.1.15,2013-12-09 04:53:00,
2013-12-08 23:54:00,32.8,31.5,30.14,SW,218,2.0,6.0,95,0.00,,,0.00,Wunderground v.1.15,2013-12-09 04:54:00,
2013-12-08 23:56:00,32.8,31.5,30.14,WSW,252,2.0,6.0,95,0.00,,,0.00,Wunderground v.1.15,2013-12-09 04:56:00,
2013-12-08 23:57:00,32.8,31.5,30.14,WSW,252,2.0,6.0,95,0.00,,,0.00,Wunderground v.1.15,2013-12-09 04:57:00,
2013-12-08 23:59:00,32.8,31.5,30.14,WNW,303,2.0,6.0,95,0.00,,,0.00,Wunderground v.1.15,2013-12-09 04:59:00,